| time (UTC) | temp F | wind direction | speed MPH | gust MPH | rain 1hr in | rain 24hr in | rain mn in | humidity % | barometer mb |
| 20260903075839 | 50 | 215 | 4.0 | 9.0 | 0.00 | 0.14 | 0.00 | 80 | 1005.4 |
| 20260903075806 | 50 | 215 | 4.0 | 9.0 | 0.00 | 0.14 | 0.00 | 80 | 1005.4 |
| 20260903075646 | 50 | 215 | 3.0 | 9.0 | 0.00 | 0.14 | 0.00 | 80 | 1005.4 |
| 20260903075541 | 50 | 253 | 4.0 | 9.0 | 0.00 | 0.14 | 0.00 | 80 | 1005.4 |
| 20260903075448 | 50 | 253 | 4.0 | 9.0 | 0.00 | 0.14 | 0.00 | 80 | 1005.4 |
| 20260903075349 | 50 | 253 | 3.0 | 9.0 | 0.00 | 0.14 | 0.00 | 80 | 1005.5 |
| 20260903075246 | 50 | 279 | 3.0 | 7.0 | 0.00 | 0.14 | 0.00 | 79 | 1005.5 |
| 20260903075153 | 50 | 283 | 2.0 | 7.0 | 0.00 | 0.14 | 0.00 | 79 | 1005.5 |
| 20260903075046 | 50 | 239 | 2.0 | 4.0 | 0.00 | 0.14 | 0.00 | 79 | 1005.5 |
| 20260903074951 | 50 | 239 | 1.0 | 3.0 | 0.00 | 0.14 | 0.00 | 79 | 1005.5 |
| 20260903074857 | 50 | 239 | 1.0 | 3.0 | 0.00 | 0.14 | 0.00 | 79 | 1005.5 |
| 20260903074738 | 50 | 239 | 0.0 | 3.0 | 0.00 | 0.14 | 0.00 | 80 | 1005.5 |
| 20260903074657 | 50 | 239 | 0.0 | 0.0 | 0.00 | 0.14 | 0.00 | 80 | 1005.5 |
| 20260903074600 | 50 | 239 | 0.0 | 0.0 | 0.00 | 0.14 | 0.00 | 80 | 1005.4 |
| 20260903074506 | 50 | 239 | 0.0 | 0.0 | 0.00 | 0.14 | 0.00 | 80 | 1005.4 |
| 20260903074342 | 50 | 239 | 0.0 | 1.0 | 0.00 | 0.14 | 0.00 | 79 | 1005.5 |
| 20260903074309 | 50 | 239 | 0.0 | 2.0 | 0.00 | 0.14 | 0.00 | 79 | 1005.5 |
| 20260903074145 | 50 | 239 | 0.0 | 2.0 | 0.00 | 0.14 | 0.00 | 79 | 1005.5 |
| 20260903074041 | 50 | 239 | 0.0 | 2.0 | 0.00 | 0.14 | 0.00 | 79 | 1005.4 |
| 20260903073952 | 50 | 239 | 0.0 | 2.0 | 0.00 | 0.14 | 0.00 | 79 | 1005.4 |
| 20260903073850 | 50 | 239 | 0.0 | 2.0 | 0.00 | 0.14 | 0.00 | 79 | 1005.3 |
| 20260903073757 | 50 | 239 | 0.0 | 3.0 | 0.00 | 0.14 | 0.00 | 79 | 1005.4 |
| 20260903073656 | 50 | 239 | 0.0 | 3.0 | 0.00 | 0.14 | 0.00 | 79 | 1005.4 |
| 20260903073601 | 50 | 239 | 0.0 | 3.0 | 0.00 | 0.14 | 0.00 | 79 | 1005.3 |
| 20260903073439 | 50 | 239 | 1.0 | 3.0 | 0.00 | 0.14 | 0.00 | 79 | 1005.3 |
| 20260903073400 | 50 | 239 | 0.0 | 4.0 | 0.00 | 0.14 | 0.00 | 79 | 1005.3 |
| 20260903073246 | 50 | 239 | 1.0 | 4.0 | 0.00 | 0.14 | 0.00 | 79 | 1005.3 |
| 20260903073144 | 51 | 239 | 1.0 | 4.0 | 0.00 | 0.14 | 0.00 | 79 | 1005.3 |
| 20260903073050 | 51 | 239 | 1.0 | 4.0 | 0.00 | 0.14 | 0.00 | 79 | 1005.4 |
| 20260903072948 | 51 | 239 | 2.0 | 4.0 | 0.00 | 0.14 | 0.00 | 79 | 1005.4 |
| 20260903072914 | 51 | 239 | 2.0 | 4.0 | 0.00 | 0.14 | 0.00 | 79 | 1005.5 |
| 20260903072758 | 51 | 239 | 2.0 | 4.0 | 0.00 | 0.14 | 0.00 | 79 | 1005.5 |
| 20260903072638 | 51 | 239 | 2.0 | 6.0 | 0.00 | 0.14 | 0.00 | 79 | 1005.5 |
| 20260903072607 | 51 | 239 | 2.0 | 6.0 | 0.00 | 0.14 | 0.00 | 79 | 1005.5 |
| 20260903072502 | 51 | 239 | 2.0 | 6.0 | 0.00 | 0.14 | 0.00 | 79 | 1005.5 |
| 20260903072407 | 51 | 239 | 2.0 | 6.0 | 0.00 | 0.14 | 0.00 | 79 | 1005.5 |
| 20260903072244 | 51 | 239 | 2.0 | 7.0 | 0.00 | 0.14 | 0.00 | 79 | 1005.4 |
| 20260903072143 | 51 | 239 | 2.0 | 7.0 | 0.00 | 0.14 | 0.00 | 79 | 1005.3 |
| 20260903072048 | 51 | 239 | 2.0 | 7.0 | 0.00 | 0.14 | 0.00 | 79 | 1005.4 |
| 20260903071949 | 51 | 239 | 3.0 | 9.0 | 0.00 | 0.14 | 0.00 | 79 | 1005.4 |
| 20260903071855 | 51 | 239 | 3.0 | 9.0 | 0.00 | 0.14 | 0.00 | 79 | 1005.4 |
| 20260903071753 | 51 | 239 | 3.0 | 9.0 | 0.00 | 0.14 | 0.00 | 79 | 1005.4 |
| 20260903071720 | 51 | 239 | 3.0 | 9.0 | 0.00 | 0.14 | 0.00 | 79 | 1005.3 |
| 20260903071556 | 51 | 239 | 3.0 | 9.0 | 0.00 | 0.14 | 0.00 | 79 | 1005.4 |
| 20260903071503 | 51 | 239 | 5.0 | 9.0 | 0.00 | 0.14 | 0.00 | 79 | 1005.4 |
| 20260903071340 | 51 | 239 | 5.0 | 9.0 | 0.00 | 0.14 | 0.00 | 79 | 1005.4 |
| 20260903071251 | 51 | 245 | 5.0 | 10.0 | 0.00 | 0.14 | 0.00 | 79 | 1005.5 |
| 20260903071148 | 51 | 255 | 4.0 | 10.0 | 0.00 | 0.14 | 0.00 | 79 | 1005.4 |
| 20260903071051 | 51 | 254 | 4.0 | 10.0 | 0.00 | 0.14 | 0.00 | 79 | 1005.3 |
| 20260903070949 | 51 | 254 | 5.0 | 10.0 | 0.00 | 0.14 | 0.00 | 79 | 1005.3 |
| 20260903070854 | 51 | 254 | 5.0 | 10.0 | 0.00 | 0.14 | 0.00 | 79 | 1005.3 |
| 20260903070752 | 51 | 247 | 5.0 | 10.0 | 0.00 | 0.14 | 0.00 | 79 | 1005.3 |
| 20260903070651 | 51 | 246 | 5.0 | 10.0 | 0.00 | 0.14 | 0.00 | 79 | 1005.3 |
| 20260903070601 | 51 | 260 | 6.0 | 10.0 | 0.00 | 0.14 | 0.00 | 79 | 1005.3 |
| 20260903070506 | 51 | 255 | 6.0 | 10.0 | 0.00 | 0.14 | 0.00 | 79 | 1005.2 |
| 20260903070345 | 51 | 261 | 4.0 | 12.0 | 0.00 | 0.14 | 0.00 | 79 | 1005.1 |
| 20260903070301 | 51 | 261 | 4.0 | 12.0 | 0.00 | 0.14 | 0.00 | 80 | 1005.1 |
| 20260903070155 | 51 | 262 | 6.0 | 12.0 | 0.00 | 0.14 | 0.00 | 80 | 1005.1 |
| 20260903070111 | 51 | 256 | 6.0 | 12.0 | 0.00 | 0.14 | 0.14 | 80 | 1005.1 |
| 20260903070017 | 51 | 265 | 6.0 | 12.0 | 0.00 | 0.14 | 0.14 | 80 | 1005.1 |
| 20260903065902 | 51 | 267 | 5.0 | 12.0 | 0.00 | 0.14 | 0.14 | 80 | 1005.1 |
| 20260903065739 | 51 | 269 | 5.0 | 13.0 | 0.00 | 0.14 | 0.14 | 80 | 1005.1 |
| 20260903065642 | 51 | 264 | 7.0 | 13.0 | 0.00 | 0.14 | 0.14 | 80 | 1005.0 |
| 20260903065606 | 51 | 267 | 7.0 | 13.0 | 0.00 | 0.14 | 0.14 | 80 | 1005.0 |
| 20260903065452 | 51 | 264 | 6.0 | 13.0 | 0.00 | 0.14 | 0.14 | 81 | 1005.0 |
| 20260903065348 | 51 | 244 | 5.0 | 13.0 | 0.00 | 0.14 | 0.14 | 81 | 1005.0 |
| 20260903065315 | 51 | 254 | 6.0 | 13.0 | 0.00 | 0.14 | 0.14 | 81 | 1005.0 |
| 20260903065153 | 51 | 248 | 6.0 | 13.0 | 0.00 | 0.14 | 0.14 | 81 | 1005.1 |
| 20260903065058 | 51 | 265 | 6.0 | 13.0 | 0.00 | 0.14 | 0.14 | 80 | 1005.0 |
| 20260903064939 | 51 | 250 | 7.0 | 13.0 | 0.00 | 0.14 | 0.14 | 80 | 1005.0 |
| 20260903064906 | 51 | 277 | 7.0 | 14.0 | 0.00 | 0.14 | 0.14 | 80 | 1005.0 |
| 20260903064803 | 51 | 268 | 6.0 | 14.0 | 0.00 | 0.14 | 0.14 | 80 | 1004.8 |
| 20260903064650 | 51 | 268 | 6.0 | 14.0 | 0.00 | 0.14 | 0.14 | 80 | 1004.9 |
| 20260903064553 | 51 | 262 | 8.0 | 14.0 | 0.00 | 0.14 | 0.14 | 81 | 1004.9 |
| 20260903064511 | 51 | 273 | 7.0 | 14.0 | 0.00 | 0.14 | 0.14 | 81 | 1004.9 |
| 20260903064415 | 51 | 253 | 7.0 | 14.0 | 0.00 | 0.14 | 0.14 | 81 | 1005.0 |
| 20260903064301 | 51 | 263 | 7.0 | 14.0 | 0.00 | 0.14 | 0.14 | 81 | 1004.9 |
| 20260903064144 | 51 | 280 | 8.0 | 14.0 | 0.00 | 0.14 | 0.14 | 80 | 1005.0 |
| 20260903064039 | 51 | 273 | 9.0 | 14.0 | 0.00 | 0.14 | 0.14 | 80 | 1005.0 |
| 20260903063944 | 51 | 265 | 8.0 | 14.0 | 0.00 | 0.14 | 0.14 | 81 | 1005.0 |
| 20260903063840 | 51 | 252 | 6.0 | 13.0 | 0.00 | 0.14 | 0.14 | 81 | 1004.9 |
| 20260903063746 | 51 | 279 | 7.0 | 13.0 | 0.00 | 0.14 | 0.14 | 81 | 1005.0 |
| 20260903063646 | 51 | 272 | 8.0 | 13.0 | 0.00 | 0.14 | 0.14 | 81 | 1005.0 |
| 20260903063540 | 51 | 290 | 8.0 | 13.0 | 0.00 | 0.14 | 0.14 | 81 | 1005.0 |
| 20260903063449 | 51 | 277 | 7.0 | 13.0 | 0.00 | 0.14 | 0.14 | 81 | 1005.0 |
| 20260903063356 | 51 | 297 | 5.0 | 13.0 | 0.00 | 0.14 | 0.14 | 81 | 1005.0 |
| 20260903063253 | 51 | 254 | 7.0 | 13.0 | 0.00 | 0.14 | 0.14 | 81 | 1005.0 |
| 20260903063151 | 51 | 276 | 9.0 | 13.0 | 0.00 | 0.14 | 0.14 | 81 | 1004.9 |
| 20260903063055 | 51 | 267 | 8.0 | 13.0 | 0.00 | 0.14 | 0.14 | 82 | 1005.0 |
| 20260903063020 | 51 | 287 | 6.0 | 13.0 | 0.00 | 0.14 | 0.14 | 82 | 1004.9 |
| 20260903062857 | 51 | 292 | 6.0 | 8.0 | 0.00 | 0.14 | 0.14 | 82 | 1004.9 |
| 20260903062738 | 51 | 272 | 5.0 | 10.0 | 0.00 | 0.14 | 0.14 | 82 | 1004.9 |
| 20260903062644 | 51 | 273 | 3.0 | 10.0 | 0.00 | 0.14 | 0.14 | 82 | 1004.9 |
| 20260903062541 | 51 | 272 | 4.0 | 11.0 | 0.00 | 0.14 | 0.14 | 82 | 1005.0 |
| 20260903062438 | 51 | 272 | 4.0 | 11.0 | 0.00 | 0.14 | 0.14 | 82 | 1004.9 |
| 20260903062344 | 51 | 272 | 4.0 | 11.0 | 0.00 | 0.14 | 0.14 | 82 | 1005.0 |
| 20260903062240 | 51 | 271 | 4.0 | 11.0 | 0.00 | 0.14 | 0.14 | 82 | 1005.0 |
| 20260903062207 | 51 | 271 | 5.0 | 11.0 | 0.00 | 0.14 | 0.14 | 82 | 1004.9 |
| 20260903062056 | 51 | 264 | 5.0 | 11.0 | 0.00 | 0.14 | 0.14 | 82 | 1004.8 |
| 20260903062010 | 51 | 274 | 7.0 | 11.0 | 0.00 | 0.14 | 0.14 | 82 | 1004.9 |
| 20260903061915 | 51 | 275 | 7.0 | 11.0 | 0.00 | 0.14 | 0.14 | 83 | 1004.8 |
| 20260903061801 | 51 | 271 | 7.0 | 11.0 | 0.00 | 0.14 | 0.14 | 83 | 1004.8 |
| 20260903061640 | 51 | 235 | 5.0 | 12.0 | 0.00 | 0.14 | 0.14 | 84 | 1004.7 |
| 20260903061605 | 51 | 235 | 3.0 | 5.0 | 0.00 | 0.14 | 0.14 | 84 | 1004.8 |
| 20260903061441 | 51 | 234 | 3.0 | 5.0 | 0.00 | 0.14 | 0.14 | 84 | 1004.7 |
| 20260903061343 | 51 | 234 | 3.0 | 6.0 | 0.00 | 0.14 | 0.14 | 84 | 1004.7 |
| 20260903061249 | 51 | 235 | 3.0 | 6.0 | 0.00 | 0.14 | 0.14 | 84 | 1004.7 |
| 20260903061218 | 51 | 234 | 3.0 | 6.0 | 0.00 | 0.14 | 0.14 | 84 | 1004.8 |
| 20260903061052 | 51 | 234 | 2.0 | 6.0 | 0.00 | 0.14 | 0.14 | 84 | 1004.6 |
| 20260903060949 | 51 | 234 | 2.0 | 6.0 | 0.00 | 0.14 | 0.14 | 84 | 1004.6 |
| 20260903060854 | 51 | 234 | 2.0 | 6.0 | 0.00 | 0.14 | 0.14 | 84 | 1004.6 |
| 20260903060751 | 51 | 234 | 2.0 | 6.0 | 0.00 | 0.14 | 0.14 | 84 | 1004.6 |
| 20260903060701 | 51 | 235 | 3.0 | 6.0 | 0.00 | 0.14 | 0.14 | 85 | 1004.6 |
| 20260903060629 | 51 | 234 | 3.0 | 6.0 | 0.00 | 0.14 | 0.14 | 85 | 1004.6 |
| 20260903060443 | 51 | 229 | 0.0 | 4.0 | 0.00 | 0.14 | 0.14 | 85 | 1004.6 |
| 20260903060339 | 51 | 229 | 0.0 | 3.0 | 0.00 | 0.14 | 0.14 | 85 | 1004.6 |
| 20260903060255 | 51 | 229 | 1.0 | 3.0 | 0.00 | 0.14 | 0.14 | 85 | 1004.6 |
| 20260903060139 | 51 | 229 | 1.0 | 4.0 | 0.00 | 0.14 | 0.14 | 85 | 1004.7 |
| 20260903060105 | 51 | 229 | 0.0 | 4.0 | 0.00 | 0.14 | 0.14 | 85 | 1004.7 |
| 20260903055951 | 51 | 229 | 0.0 | 4.0 | 0.00 | 0.14 | 0.14 | 85 | 1004.7 |
| 20260903055852 | 51 | 229 | 0.0 | 4.0 | 0.00 | 0.14 | 0.14 | 85 | 1004.7 |
| 20260903055818 | 51 | 229 | 0.0 | 4.0 | 0.00 | 0.14 | 0.14 | 85 | 1004.7 |
| 20260903055656 | 51 | 229 | 0.0 | 4.0 | 0.00 | 0.14 | 0.14 | 85 | 1004.7 |
| 20260903055538 | 52 | 229 | 1.0 | 4.0 | 0.00 | 0.14 | 0.14 | 85 | 1004.8 |
| 20260903055505 | 52 | 229 | 1.0 | 4.0 | 0.00 | 0.14 | 0.14 | 85 | 1004.8 |
| 20260903055341 | 52 | 229 | 2.0 | 4.0 | 0.00 | 0.14 | 0.14 | 85 | 1004.9 |
| 20260903055238 | 52 | 229 | 2.0 | 4.0 | 0.00 | 0.14 | 0.14 | 85 | 1004.8 |
| 20260903055151 | 52 | 229 | 2.0 | 4.0 | 0.00 | 0.14 | 0.14 | 85 | 1004.8 |
| 20260903055047 | 52 | 229 | 2.0 | 4.0 | 0.00 | 0.14 | 0.14 | 85 | 1004.8 |
| 20260903055014 | 52 | 229 | 3.0 | 4.0 | 0.00 | 0.14 | 0.14 | 85 | 1004.9 |
| 20260903054848 | 52 | 229 | 3.0 | 3.0 | 0.00 | 0.14 | 0.14 | 85 | 1004.9 |
| 20260903054753 | 52 | 229 | 2.0 | 3.0 | 0.01 | 0.14 | 0.14 | 85 | 1004.9 |
| 20260903054651 | 52 | 229 | 3.0 | 4.0 | 0.01 | 0.14 | 0.14 | 85 | 1004.9 |
| 20260903054546 | 52 | 229 | 2.0 | 4.0 | 0.01 | 0.14 | 0.14 | 85 | 1004.9 |
| 20260903054456 | 52 | 229 | 2.0 | 5.0 | 0.01 | 0.14 | 0.14 | 85 | 1004.9 |
| 20260903054353 | 52 | 229 | 2.0 | 6.0 | 0.01 | 0.14 | 0.14 | 85 | 1004.8 |
| 20260903054300 | 52 | 229 | 2.0 | 6.0 | 0.01 | 0.14 | 0.14 | 85 | 1004.9 |
| 20260903054155 | 52 | 229 | 1.0 | 6.0 | 0.01 | 0.14 | 0.14 | 85 | 1004.9 |
| 20260903054100 | 52 | 229 | 1.0 | 6.0 | 0.01 | 0.14 | 0.14 | 85 | 1004.8 |
| 20260903053938 | 52 | 229 | 2.0 | 6.0 | 0.01 | 0.14 | 0.14 | 85 | 1004.8 |
| 20260903053839 | 52 | 229 | 3.0 | 6.0 | 0.01 | 0.14 | 0.14 | 85 | 1004.9 |
| 20260903053743 | 52 | 229 | 4.0 | 6.0 | 0.01 | 0.14 | 0.14 | 84 | 1004.8 |
| 20260903053641 | 52 | 229 | 4.0 | 6.0 | 0.01 | 0.14 | 0.14 | 84 | 1004.9 |
| 20260903053544 | 52 | 229 | 4.0 | 6.0 | 0.01 | 0.14 | 0.14 | 84 | 1004.8 |
| 20260903053508 | 52 | 229 | 3.0 | 4.0 | 0.01 | 0.14 | 0.14 | 84 | 1004.8 |
| 20260903053352 | 52 | 229 | 2.0 | 3.0 | 0.01 | 0.14 | 0.14 | 84 | 1004.8 |
| 20260903053309 | 52 | 229 | 2.0 | 3.0 | 0.01 | 0.14 | 0.14 | 84 | 1004.7 |
| 20260903053155 | 52 | 229 | 2.0 | 3.0 | 0.01 | 0.14 | 0.14 | 84 | 1004.7 |
| 20260903053050 | 52 | 229 | 2.0 | 3.0 | 0.01 | 0.14 | 0.14 | 84 | 1004.6 |
| 20260903052959 | 52 | 229 | 2.0 | 3.0 | 0.01 | 0.14 | 0.14 | 84 | 1004.7 |
| 20260903052854 | 52 | 229 | 1.0 | 3.0 | 0.01 | 0.14 | 0.14 | 84 | 1004.6 |
| 20260903052800 | 52 | 229 | 1.0 | 3.0 | 0.01 | 0.14 | 0.14 | 84 | 1004.5 |
| 20260903052659 | 52 | 229 | 1.0 | 3.0 | 0.01 | 0.14 | 0.14 | 84 | 1004.5 |
| 20260903052555 | 52 | 229 | 1.0 | 3.0 | 0.01 | 0.14 | 0.14 | 84 | 1004.5 |
| 20260903052502 | 52 | 229 | 1.0 | 3.0 | 0.01 | 0.14 | 0.14 | 84 | 1004.5 |
| 20260903052402 | 52 | 229 | 1.0 | 3.0 | 0.01 | 0.14 | 0.14 | 84 | 1004.5 |
| 20260903052246 | 52 | 229 | 1.0 | 3.0 | 0.01 | 0.14 | 0.14 | 84 | 1004.3 |
| 20260903052146 | 52 | 229 | 1.0 | 3.0 | 0.01 | 0.14 | 0.14 | 84 | 1004.3 |
| 20260903052051 | 52 | 229 | 2.0 | 4.0 | 0.01 | 0.14 | 0.14 | 84 | 1004.4 |
| 20260903051946 | 52 | 229 | 2.0 | 7.0 | 0.01 | 0.14 | 0.14 | 83 | 1004.3 |
| 20260903051914 | 52 | 229 | 2.0 | 7.0 | 0.01 | 0.14 | 0.14 | 83 | 1004.3 |
| 20260903051750 | 52 | 229 | 1.0 | 8.0 | 0.01 | 0.14 | 0.14 | 83 | 1004.3 |
| 20260903051702 | 52 | 229 | 1.0 | 8.0 | 0.01 | 0.14 | 0.14 | 83 | 1004.4 |
| 20260903051557 | 52 | 229 | 0.0 | 8.0 | 0.01 | 0.14 | 0.14 | 83 | 1004.5 |
| 20260903051502 | 52 | 229 | 0.0 | 8.0 | 0.01 | 0.14 | 0.14 | 83 | 1004.6 |
| 20260903051340 | 52 | 229 | 2.0 | 8.0 | 0.01 | 0.14 | 0.14 | 83 | 1004.7 |
| 20260903051306 | 52 | 229 | 3.0 | 8.0 | 0.01 | 0.14 | 0.14 | 83 | 1004.7 |
| 20260903051146 | 52 | 229 | 5.0 | 8.0 | 0.01 | 0.14 | 0.14 | 83 | 1005.0 |
| 20260903051042 | 52 | 239 | 6.0 | 8.0 | 0.01 | 0.14 | 0.14 | 83 | 1005.1 |
| 20260903050952 | 52 | 240 | 6.0 | 11.0 | 0.01 | 0.14 | 0.14 | 83 | 1005.2 |
| 20260903050850 | 52 | 219 | 6.0 | 11.0 | 0.01 | 0.14 | 0.14 | 83 | 1005.2 |
| 20260903050755 | 52 | 240 | 6.0 | 11.0 | 0.01 | 0.14 | 0.14 | 83 | 1005.2 |
| 20260903050653 | 52 | 235 | 6.0 | 11.0 | 0.01 | 0.14 | 0.14 | 83 | 1005.2 |
| 20260903050550 | 52 | 250 | 6.0 | 11.0 | 0.01 | 0.14 | 0.14 | 83 | 1005.2 |
| 20260903050516 | 52 | 245 | 6.0 | 11.0 | 0.01 | 0.14 | 0.14 | 83 | 1005.2 |
| 20260903050422 | 52 | 245 | 6.0 | 11.0 | 0.01 | 0.14 | 0.14 | 83 | 1005.2 |
| 20260903050342 | 52 | 252 | 7.0 | 11.0 | 0.01 | 0.14 | 0.14 | 83 | 1005.2 |
| 20260903050142 | 52 | 253 | 5.0 | 11.0 | 0.01 | 0.14 | 0.14 | 83 | 1005.2 |
| 20260903050038 | 52 | 252 | 5.0 | 10.0 | 0.01 | 0.14 | 0.14 | 83 | 1005.1 |
| 20260903050005 | 52 | 244 | 5.0 | 10.0 | 0.01 | 0.14 | 0.14 | 83 | 1005.1 |
| 20260903045842 | 52 | 256 | 7.0 | 10.0 | 0.01 | 0.14 | 0.14 | 83 | 1005.2 |
| 20260903045808 | 52 | 265 | 6.0 | 10.0 | 0.01 | 0.14 | 0.14 | 83 | 1005.1 |
| 20260903045646 | 52 | 244 | 4.0 | 7.0 | 0.01 | 0.14 | 0.14 | 83 | 1005.1 |
| 20260903045615 | 52 | 244 | 4.0 | 7.0 | 0.01 | 0.14 | 0.14 | 83 | 1005.0 |
| 20260903045452 | 53 | 243 | 4.0 | 7.0 | 0.01 | 0.14 | 0.14 | 83 | 1005.0 |
| 20260903045338 | 53 | 242 | 3.0 | 7.0 | 0.01 | 0.14 | 0.14 | 83 | 1005.0 |
| 20260903045256 | 53 | 242 | 3.0 | 7.0 | 0.01 | 0.14 | 0.14 | 82 | 1005.0 |
| 20260903045203 | 53 | 242 | 4.0 | 7.0 | 0.01 | 0.14 | 0.14 | 82 | 1005.0 |
| 20260903045039 | 53 | 242 | 4.0 | 7.0 | 0.01 | 0.14 | 0.14 | 82 | 1005.0 |
| 20260903044959 | 53 | 246 | 3.0 | 7.0 | 0.01 | 0.14 | 0.14 | 82 | 1004.9 |
| 20260903044838 | 53 | 246 | 2.0 | 5.0 | 0.01 | 0.14 | 0.14 | 82 | 1004.8 |
| 20260903044804 | 53 | 246 | 2.0 | 5.0 | 0.00 | 0.13 | 0.13 | 82 | 1004.8 |
| 20260903044640 | 53 | 246 | 3.0 | 5.0 | 0.00 | 0.13 | 0.13 | 82 | 1004.8 |
| 20260903044556 | 53 | 246 | 3.0 | 5.0 | 0.00 | 0.13 | 0.13 | 82 | 1004.8 |
| 20260903044504 | 53 | 246 | 3.0 | 5.0 | 0.00 | 0.13 | 0.13 | 82 | 1004.8 |
| 20260903044339 | 53 | 246 | 3.0 | 5.0 | 0.00 | 0.13 | 0.13 | 82 | 1004.8 |
| 20260903044240 | 53 | 246 | 3.0 | 9.0 | 0.00 | 0.13 | 0.13 | 82 | 1004.7 |
| 20260903044209 | 53 | 246 | 3.0 | 9.0 | 0.00 | 0.13 | 0.13 | 81 | 1004.7 |
| 20260903044051 | 53 | 246 | 3.0 | 9.0 | 0.00 | 0.13 | 0.13 | 81 | 1004.7 |
| 20260903044008 | 53 | 246 | 4.0 | 9.0 | 0.00 | 0.13 | 0.13 | 81 | 1004.7 |
| 20260903043853 | 53 | 246 | 3.0 | 9.0 | 0.00 | 0.13 | 0.13 | 81 | 1004.7 |
| 20260903043750 | 53 | 246 | 4.0 | 9.0 | 0.00 | 0.13 | 0.13 | 81 | 1004.7 |
| 20260903043657 | 53 | 246 | 4.0 | 9.0 | 0.00 | 0.13 | 0.13 | 80 | 1004.7 |
| 20260903043538 | 53 | 246 | 5.0 | 9.0 | 0.00 | 0.13 | 0.13 | 80 | 1004.7 |
| 20260903043455 | 53 | 246 | 6.0 | 9.0 | 0.00 | 0.13 | 0.13 | 80 | 1004.7 |
| 20260903043342 | 53 | 251 | 6.0 | 9.0 | 0.00 | 0.13 | 0.13 | 80 | 1004.7 |
| 20260903043258 | 53 | 285 | 6.0 | 9.0 | 0.00 | 0.13 | 0.13 | 79 | 1004.7 |
| 20260903043205 | 53 | 237 | 4.0 | 8.0 | 0.00 | 0.13 | 0.13 | 79 | 1004.7 |
| 20260903043041 | 53 | 257 | 2.0 | 7.0 | 0.00 | 0.13 | 0.13 | 79 | 1004.6 |
| 20260903042941 | 53 | 186 | 1.0 | 2.0 | 0.00 | 0.13 | 0.13 | 79 | 1004.6 |
| 20260903042847 | 53 | 186 | 0.0 | 0.0 | 0.00 | 0.13 | 0.13 | 79 | 1004.6 |
| 20260903042745 | 53 | 186 | 0.0 | 0.0 | 0.00 | 0.13 | 0.13 | 78 | 1004.6 |
| 20260903042653 | 53 | 186 | 0.0 | 0.0 | 0.00 | 0.13 | 0.13 | 78 | 1004.6 |
| 20260903042548 | 53 | 186 | 0.0 | 0.0 | 0.00 | 0.13 | 0.13 | 78 | 1004.6 |
| 20260903042446 | 53 | 186 | 0.0 | 0.0 | 0.00 | 0.13 | 0.13 | 78 | 1004.6 |
| 20260903042353 | 53 | 186 | 0.0 | 0.0 | 0.00 | 0.13 | 0.13 | 78 | 1004.6 |
| 20260903042255 | 53 | 186 | 0.0 | 0.0 | 0.00 | 0.13 | 0.13 | 78 | 1004.5 |
| 20260903042202 | 53 | 186 | 0.0 | 0.0 | 0.00 | 0.13 | 0.13 | 78 | 1004.5 |
| 20260903042038 | 53 | 186 | 0.0 | 0.0 | 0.00 | 0.13 | 0.13 | 78 | 1004.4 |
| 20260903041944 | 53 | 186 | 0.0 | 0.0 | 0.00 | 0.13 | 0.13 | 78 | 1004.4 |
| 20260903041841 | 53 | 186 | 0.0 | 0.0 | 0.00 | 0.13 | 0.13 | 78 | 1004.4 |
| 20260903041807 | 53 | 186 | 0.0 | 0.0 | 0.00 | 0.13 | 0.13 | 79 | 1004.4 |
| 20260903041643 | 53 | 186 | 0.0 | 0.0 | 0.00 | 0.13 | 0.13 | 79 | 1004.3 |
| 20260903041552 | 53 | 186 | 0.0 | 0.0 | 0.00 | 0.13 | 0.13 | 79 | 1004.3 |
| 20260903041449 | 53 | 186 | 0.0 | 0.0 | 0.00 | 0.13 | 0.13 | 79 | 1004.4 |
| 20260903041356 | 53 | 186 | 0.0 | 0.0 | 0.00 | 0.13 | 0.13 | 79 | 1004.3 |
| 20260903041314 | 53 | 186 | 0.0 | 2.0 | 0.00 | 0.13 | 0.13 | 78 | 1004.3 |
| 20260903041220 | 53 | 186 | 0.0 | 3.0 | 0.00 | 0.13 | 0.13 | 78 | 1004.2 |
| 20260903041104 | 53 | 186 | 0.0 | 3.0 | 0.00 | 0.13 | 0.13 | 78 | 1004.2 |
| 20260903040942 | 53 | 186 | 0.0 | 4.0 | 0.00 | 0.13 | 0.13 | 78 | 1004.2 |
| 20260903040843 | 53 | 186 | 0.0 | 4.0 | 0.00 | 0.13 | 0.13 | 78 | 1004.2 |
| 20260903040750 | 53 | 186 | 0.0 | 4.0 | 0.00 | 0.13 | 0.13 | 78 | 1004.2 |
| 20260903040708 | 53 | 186 | 0.0 | 4.0 | 0.00 | 0.13 | 0.13 | 78 | 1004.2 |
| 20260903040610 | 53 | 186 | 0.0 | 5.0 | 0.00 | 0.13 | 0.13 | 78 | 1004.2 |
| 20260903040456 | 53 | 186 | 1.0 | 5.0 | 0.00 | 0.13 | 0.13 | 78 | 1004.2 |
| 20260903040354 | 53 | 186 | 1.0 | 5.0 | 0.00 | 0.13 | 0.13 | 77 | 1004.2 |
| 20260903040330 | 53 | 186 | 2.0 | 5.0 | 0.00 | 0.13 | 0.13 | 77 | 1004.2 |
| 20260903040155 | 53 | 186 | 2.0 | 5.0 | 0.00 | 0.13 | 0.13 | 77 | 1004.2 |
| 20260903040104 | 53 | 186 | 3.0 | 5.0 | 0.00 | 0.13 | 0.13 | 77 | 1004.1 |
| 20260903035940 | 53 | 185 | 3.0 | 5.0 | 0.00 | 0.13 | 0.13 | 77 | 1004.1 |
| 20260903035847 | 53 | 185 | 3.0 | 5.0 | 0.00 | 0.13 | 0.13 | 76 | 1004.1 |
| 20260903035743 | 53 | 185 | 4.0 | 6.0 | 0.00 | 0.13 | 0.13 | 76 | 1004.1 |
| 20260903035650 | 53 | 185 | 4.0 | 5.0 | 0.00 | 0.13 | 0.13 | 76 | 1004.1 |
| 20260903035546 | 53 | 185 | 4.0 | 5.0 | 0.00 | 0.13 | 0.13 | 76 | 1004.1 |
| 20260903035453 | 53 | 187 | 3.0 | 5.0 | 0.00 | 0.13 | 0.13 | 76 | 1004.1 |
| 20260903035354 | 53 | 190 | 2.0 | 4.0 | 0.00 | 0.13 | 0.13 | 76 | 1004.0 |
| 20260903035300 | 53 | 190 | 0.0 | 3.0 | 0.00 | 0.13 | 0.13 | 76 | 1004.0 |
| 20260903035158 | 53 | 190 | 0.0 | 2.0 | 0.00 | 0.13 | 0.13 | 77 | 1004.0 |
| 20260903035104 | 53 | 190 | 0.0 | 2.0 | 0.00 | 0.13 | 0.13 | 77 | 1004.0 |
| 20260903034941 | 53 | 190 | 0.0 | 2.0 | 0.00 | 0.13 | 0.13 | 77 | 1004.0 |
| 20260903034838 | 53 | 190 | 0.0 | 2.0 | 0.00 | 0.13 | 0.13 | 77 | 1004.0 |
| 20260903034738 | 53 | 190 | 0.0 | 2.0 | 0.00 | 0.13 | 0.13 | 77 | 1004.0 |
| 20260903034647 | 53 | 190 | 0.0 | 2.0 | 0.00 | 0.13 | 0.13 | 77 | 1003.9 |
| 20260903034541 | 53 | 190 | 1.0 | 2.0 | 0.00 | 0.13 | 0.13 | 77 | 1003.9 |
| 20260903034448 | 53 | 190 | 1.0 | 2.0 | 0.00 | 0.13 | 0.13 | 77 | 1003.9 |
| 20260903034344 | 53 | 190 | 1.0 | 2.0 | 0.00 | 0.13 | 0.13 | 78 | 1003.9 |
| 20260903034251 | 53 | 190 | 1.0 | 2.0 | 0.00 | 0.13 | 0.13 | 78 | 1004.0 |
| 20260903034148 | 53 | 190 | 1.0 | 2.0 | 0.00 | 0.13 | 0.13 | 77 | 1003.9 |
| 20260903034054 | 53 | 190 | 0.0 | 2.0 | 0.00 | 0.13 | 0.13 | 77 | 1003.9 |
| 20260903034001 | 53 | 190 | 0.0 | 2.0 | 0.00 | 0.13 | 0.13 | 77 | 1003.9 |
| 20260903033838 | 53 | 190 | 0.0 | 2.0 | 0.00 | 0.13 | 0.13 | 77 | 1003.8 |
| 20260903033744 | 53 | 190 | 0.0 | 2.0 | 0.00 | 0.13 | 0.13 | 78 | 1003.8 |
| 20260903033643 | 53 | 190 | 1.0 | 2.0 | 0.00 | 0.13 | 0.13 | 78 | 1003.7 |
| 20260903033539 | 53 | 190 | 1.0 | 2.0 | 0.00 | 0.13 | 0.13 | 78 | 1003.7 |
| 20260903033445 | 53 | 190 | 2.0 | 2.0 | 0.00 | 0.13 | 0.13 | 77 | 1003.7 |
| 20260903033347 | 53 | 190 | 1.0 | 2.0 | 0.00 | 0.13 | 0.13 | 77 | 1003.7 |
| 20260903033254 | 53 | 190 | 0.0 | 2.0 | 0.00 | 0.13 | 0.13 | 77 | 1003.7 |
| 20260903033153 | 53 | 190 | 0.0 | 2.0 | 0.00 | 0.13 | 0.13 | 77 | 1003.7 |
| 20260903033045 | 53 | 190 | 1.0 | 2.0 | 0.00 | 0.13 | 0.13 | 77 | 1003.6 |
| 20260903032951 | 53 | 190 | 1.0 | 3.0 | 0.00 | 0.13 | 0.13 | 77 | 1003.7 |
| 20260903032848 | 53 | 190 | 0.0 | 3.0 | 0.00 | 0.13 | 0.13 | 77 | 1003.7 |
| 20260903032757 | 53 | 190 | 1.0 | 3.0 | 0.00 | 0.13 | 0.13 | 77 | 1003.7 |
| 20260903032704 | 53 | 190 | 1.0 | 3.0 | 0.00 | 0.13 | 0.13 | 77 | 1003.7 |
| 20260903032540 | 53 | 190 | 2.0 | 5.0 | 0.00 | 0.13 | 0.13 | 77 | 1003.7 |
| 20260903032437 | 53 | 190 | 1.0 | 5.0 | 0.00 | 0.13 | 0.13 | 77 | 1003.7 |
| 20260903032403 | 53 | 190 | 1.0 | 5.0 | 0.00 | 0.13 | 0.13 | 77 | 1003.7 |
| 20260903032240 | 53 | 190 | 1.0 | 5.0 | 0.00 | 0.13 | 0.13 | 77 | 1003.7 |
| 20260903032208 | 53 | 190 | 2.0 | 5.0 | 0.00 | 0.13 | 0.13 | 77 | 1003.7 |
| 20260903032107 | 53 | 190 | 2.0 | 5.0 | 0.00 | 0.13 | 0.13 | 77 | 1003.7 |
| 20260903031953 | 53 | 190 | 1.0 | 5.0 | 0.00 | 0.13 | 0.13 | 77 | 1003.7 |
| 20260903031848 | 53 | 190 | 2.0 | 5.0 | 0.00 | 0.13 | 0.13 | 77 | 1003.7 |
| 20260903031746 | 53 | 190 | 3.0 | 5.0 | 0.00 | 0.13 | 0.13 | 76 | 1003.8 |
| 20260903031654 | 53 | 190 | 3.0 | 5.0 | 0.00 | 0.13 | 0.13 | 76 | 1003.7 |
| 20260903031549 | 53 | 190 | 2.0 | 7.0 | 0.00 | 0.13 | 0.13 | 76 | 1003.8 |
| 20260903031456 | 53 | 190 | 3.0 | 8.0 | 0.00 | 0.13 | 0.13 | 76 | 1003.7 |
| 20260903031338 | 53 | 190 | 3.0 | 8.0 | 0.00 | 0.13 | 0.13 | 76 | 1003.7 |
| 20260903031304 | 53 | 190 | 3.0 | 8.0 | 0.00 | 0.13 | 0.13 | 76 | 1003.7 |
| 20260903031200 | 53 | 190 | 2.0 | 8.0 | 0.00 | 0.13 | 0.13 | 76 | 1003.6 |
| 20260903031106 | 53 | 190 | 2.0 | 8.0 | 0.00 | 0.13 | 0.13 | 76 | 1003.6 |
| 20260903030942 | 53 | 149 | 2.0 | 8.0 | 0.00 | 0.13 | 0.13 | 76 | 1003.5 |
| 20260903030909 | 53 | 149 | 2.0 | 8.0 | 0.00 | 0.13 | 0.13 | 76 | 1003.5 |
| 20260903030806 | 53 | 149 | 4.0 | 8.0 | 0.00 | 0.13 | 0.13 | 76 | 1003.5 |
| 20260903030656 | 53 | 148 | 4.0 | 8.0 | 0.00 | 0.13 | 0.13 | 76 | 1003.5 |
| 20260903030552 | 53 | 149 | 3.0 | 8.0 | 0.00 | 0.13 | 0.13 | 76 | 1003.5 |
| 20260903030458 | 53 | 140 | 2.0 | 4.0 | 0.00 | 0.13 | 0.13 | 76 | 1003.6 |
| 20260903030354 | 53 | 140 | 2.0 | 4.0 | 0.00 | 0.13 | 0.13 | 76 | 1003.6 |
| 20260903030309 | 53 | 140 | 2.0 | 4.0 | 0.00 | 0.13 | 0.13 | 76 | 1003.6 |
| 20260903030152 | 53 | 140 | 2.0 | 8.0 | 0.00 | 0.13 | 0.13 | 76 | 1003.4 |
| 20260903030037 | 53 | 140 | 2.0 | 9.0 | 0.00 | 0.13 | 0.13 | 76 | 1003.4 |
| 20260903025938 | 53 | 140 | 1.0 | 9.0 | 0.00 | 0.13 | 0.13 | 76 | 1003.4 |
| 20260903025846 | 53 | 140 | 1.0 | 9.0 | 0.00 | 0.13 | 0.13 | 76 | 1003.4 |
| 20260903025741 | 53 | 140 | 1.0 | 9.0 | 0.00 | 0.13 | 0.13 | 76 | 1003.3 |
| 20260903025649 | 53 | 140 | 2.0 | 12.0 | 0.00 | 0.13 | 0.13 | 76 | 1003.4 |
| 20260903025543 | 53 | 140 | 3.0 | 12.0 | 0.00 | 0.13 | 0.13 | 76 | 1003.4 |
| 20260903025450 | 53 | 140 | 4.0 | 12.0 | 0.00 | 0.13 | 0.13 | 76 | 1003.4 |
| 20260903025347 | 53 | 140 | 6.0 | 12.0 | 0.00 | 0.13 | 0.13 | 76 | 1003.4 |
| 20260903025314 | 53 | 140 | 6.0 | 12.0 | 0.00 | 0.13 | 0.13 | 76 | 1003.5 |
| 20260903025204 | 53 | 148 | 7.0 | 12.0 | 0.00 | 0.13 | 0.13 | 76 | 1003.5 |
| 20260903025040 | 53 | 152 | 6.0 | 12.0 | 0.00 | 0.13 | 0.13 | 76 | 1003.5 |
| 20260903024938 | 53 | 154 | 7.0 | 12.0 | 0.00 | 0.13 | 0.13 | 76 | 1003.5 |
| 20260903024844 | 53 | 136 | 7.0 | 12.0 | 0.00 | 0.13 | 0.13 | 76 | 1003.4 |
| 20260903024740 | 53 | 149 | 4.0 | 10.0 | 0.00 | 0.13 | 0.13 | 76 | 1003.4 |
| 20260903024649 | 53 | 183 | 4.0 | 10.0 | 0.01 | 0.13 | 0.13 | 76 | 1003.5 |
| 20260903024548 | 53 | 183 | 5.0 | 11.0 | 0.01 | 0.13 | 0.13 | 77 | 1003.5 |
| 20260903024515 | 53 | 159 | 6.0 | 11.0 | 0.01 | 0.13 | 0.13 | 77 | 1003.4 |
| 20260903024351 | 53 | 160 | 7.0 | 11.0 | 0.01 | 0.13 | 0.13 | 77 | 1003.4 |
| 20260903024257 | 53 | 131 | 6.0 | 11.0 | 0.01 | 0.13 | 0.13 | 77 | 1003.4 |
| 20260903024203 | 53 | 133 | 5.0 | 11.0 | 0.01 | 0.13 | 0.13 | 77 | 1003.4 |
| 20260903024057 | 53 | 131 | 6.0 | 12.0 | 0.01 | 0.13 | 0.13 | 77 | 1003.4 |
| 20260903005847 | 54 | 227 | 17.0 | 28.0 | 0.02 | 0.11 | 0.11 | 77 | 1004.1 |
| 20260903005814 | 54 | 225 | 18.0 | 28.0 | 0.02 | 0.11 | 0.11 | 77 | 1004.1 |
| 20260903005655 | 54 | 262 | 17.0 | 28.0 | 0.02 | 0.11 | 0.11 | 77 | 1004.0 |
| 20260903005559 | 54 | 264 | 15.0 | 27.0 | 0.02 | 0.11 | 0.11 | 77 | 1004.0 |
| 20260903005517 | 54 | 250 | 15.0 | 26.0 | 0.02 | 0.11 | 0.11 | 77 | 1004.1 |
| 20260903005343 | 54 | 225 | 15.0 | 23.0 | 0.02 | 0.11 | 0.11 | 78 | 1004.1 |
| 20260903005241 | 54 | 266 | 16.0 | 23.0 | 0.02 | 0.11 | 0.11 | 77 | 1004.1 |
| 20260903005141 | 54 | 192 | 15.0 | 24.0 | 0.03 | 0.11 | 0.11 | 78 | 1004.2 |
| 20260903005050 | 54 | 229 | 14.0 | 24.0 | 0.03 | 0.11 | 0.11 | 78 | 1004.2 |
| 20260903004947 | 54 | 277 | 12.0 | 21.0 | 0.03 | 0.11 | 0.11 | 78 | 1004.2 |
| 20260903004853 | 55 | 219 | 11.0 | 20.0 | 0.03 | 0.11 | 0.11 | 79 | 1004.2 |
| 20260903004750 | 55 | 266 | 9.0 | 20.0 | 0.03 | 0.11 | 0.11 | 79 | 1004.2 |
| 20260903004654 | 55 | 243 | 11.0 | 20.0 | 0.03 | 0.11 | 0.11 | 78 | 1004.2 |
| 20260903004549 | 55 | 248 | 12.0 | 21.0 | 0.03 | 0.11 | 0.11 | 78 | 1004.2 |
| 20260903004515 | 55 | 253 | 11.0 | 21.0 | 0.03 | 0.11 | 0.11 | 78 | 1004.3 |
| 20260903004356 | 55 | 257 | 11.0 | 21.0 | 0.05 | 0.11 | 0.11 | 78 | 1004.2 |
| 20260903004302 | 55 | 251 | 11.0 | 23.0 | 0.06 | 0.11 | 0.11 | 78 | 1004.2 |
| 20260903004141 | 55 | 254 | 11.0 | 24.0 | 0.06 | 0.11 | 0.11 | 78 | 1004.2 |
| 20260903004056 | 55 | 261 | 10.0 | 24.0 | 0.06 | 0.11 | 0.11 | 78 | 1004.1 |
| 20260903003941 | 55 | 248 | 10.0 | 24.0 | 0.07 | 0.11 | 0.11 | 79 | 1004.2 |
| 20260903003838 | 55 | 248 | 12.0 | 24.0 | 0.07 | 0.11 | 0.11 | 78 | 1004.2 |
| 20260903003738 | 55 | 257 | 13.0 | 22.0 | 0.07 | 0.11 | 0.11 | 78 | 1004.2 |
| 20260903003646 | 55 | 264 | 15.0 | 22.0 | 0.07 | 0.11 | 0.11 | 79 | 1004.4 |
| 20260903003542 | 55 | 250 | 16.0 | 22.0 | 0.07 | 0.11 | 0.11 | 80 | 1004.3 |
| 20260903003509 | 55 | 229 | 16.0 | 22.0 | 0.06 | 0.10 | 0.10 | 80 | 1004.4 |
| 20260903003415 | 56 | 237 | 15.0 | 22.0 | 0.06 | 0.10 | 0.10 | 81 | 1004.3 |
| 20260903003247 | 56 | 255 | 12.0 | 23.0 | 0.06 | 0.10 | 0.10 | 84 | 1004.3 |
| 20260903003154 | 56 | 241 | 10.0 | 22.0 | 0.06 | 0.10 | 0.10 | 84 | 1004.3 |
| 20260903003051 | 56 | 242 | 12.0 | 22.0 | 0.06 | 0.10 | 0.10 | 84 | 1004.2 |
| 20260903003001 | 56 | 248 | 13.0 | 22.0 | 0.06 | 0.10 | 0.10 | 84 | 1004.2 |
| 20260903002859 | 56 | 218 | 10.0 | 21.0 | 0.06 | 0.10 | 0.10 | 86 | 1004.1 |
| 20260903002805 | 56 | 225 | 8.0 | 21.0 | 0.06 | 0.10 | 0.10 | 87 | 1004.1 |
| 20260903002644 | 56 | 213 | 4.0 | 7.0 | 0.06 | 0.10 | 0.10 | 87 | 1004.2 |
| 20260903002540 | 56 | 213 | 3.0 | 7.0 | 0.06 | 0.10 | 0.10 | 86 | 1004.1 |
| 20260903002447 | 56 | 213 | 3.0 | 7.0 | 0.06 | 0.10 | 0.10 | 86 | 1004.3 |
| 20260903002346 | 56 | 213 | 3.0 | 7.0 | 0.06 | 0.10 | 0.10 | 86 | 1004.2 |
| 20260903002253 | 56 | 213 | 3.0 | 7.0 | 0.06 | 0.10 | 0.10 | 86 | 1004.1 |
| 20260903002212 | 57 | 213 | 3.0 | 7.0 | 0.06 | 0.10 | 0.10 | 86 | 1004.1 |
| 20260903002055 | 57 | 213 | 3.0 | 7.0 | 0.06 | 0.10 | 0.10 | 86 | 1004.1 |
| 20260903001953 | 57 | 255 | 2.0 | 3.0 | 0.06 | 0.10 | 0.10 | 86 | 1004.2 |
| 20260903001900 | 57 | 255 | 2.0 | 3.0 | 0.06 | 0.10 | 0.10 | 86 | 1004.2 |
| 20260903001757 | 57 | 255 | 2.0 | 3.0 | 0.06 | 0.10 | 0.10 | 86 | 1004.1 |
| 20260903001639 | 57 | 255 | 2.0 | 3.0 | 0.06 | 0.10 | 0.10 | 86 | 1004.1 |
| 20260903001544 | 57 | 255 | 2.0 | 3.0 | 0.06 | 0.10 | 0.10 | 85 | 1004.1 |
| 20260903001441 | 57 | 255 | 2.0 | 3.0 | 0.06 | 0.10 | 0.10 | 85 | 1004.1 |
| 20260903001347 | 57 | 255 | 2.0 | 3.0 | 0.06 | 0.10 | 0.10 | 85 | 1004.0 |
| 20260903001244 | 57 | 255 | 2.0 | 3.0 | 0.06 | 0.10 | 0.10 | 85 | 1004.0 |
| 20260903001143 | 57 | 255 | 2.0 | 3.0 | 0.06 | 0.10 | 0.10 | 84 | 1004.0 |
| 20260903001052 | 57 | 256 | 2.0 | 4.0 | 0.06 | 0.10 | 0.10 | 84 | 1004.0 |
| 20260903000949 | 57 | 256 | 2.0 | 4.0 | 0.06 | 0.10 | 0.10 | 84 | 1004.0 |
| 20260903000915 | 57 | 256 | 2.0 | 4.0 | 0.06 | 0.10 | 0.10 | 84 | 1004.0 |
| 20260903000752 | 57 | 256 | 1.0 | 4.0 | 0.06 | 0.10 | 0.10 | 84 | 1003.9 |
| 20260903000720 | 57 | 256 | 2.0 | 4.0 | 0.06 | 0.10 | 0.10 | 84 | 1003.8 |
| 20260903000604 | 57 | 256 | 2.0 | 4.0 | 0.05 | 0.09 | 0.09 | 84 | 1003.9 |
| 20260903000502 | 57 | 256 | 2.0 | 4.0 | 0.05 | 0.09 | 0.09 | 84 | 1003.9 |
| 20260903000409 | 57 | 256 | 2.0 | 4.0 | 0.05 | 0.09 | 0.09 | 83 | 1003.8 |
| 20260903000258 | 57 | 256 | 3.0 | 4.0 | 0.05 | 0.09 | 0.09 | 83 | 1003.9 |
| 20260903000154 | 57 | 256 | 2.0 | 4.0 | 0.05 | 0.09 | 0.09 | 83 | 1003.8 |
| 20260903000050 | 57 | 256 | 1.0 | 4.0 | 0.05 | 0.09 | 0.09 | 83 | 1003.8 |
| 20260902235956 | 57 | 256 | 0.0 | 4.0 | 0.05 | 0.09 | 0.09 | 83 | 1003.7 |
| 20260902235853 | 57 | 256 | 1.0 | 4.0 | 0.05 | 0.09 | 0.09 | 83 | 1003.8 |
| 20260902235758 | 57 | 256 | 1.0 | 4.0 | 0.05 | 0.09 | 0.09 | 83 | 1003.7 |
| 20260902235654 | 57 | 256 | 1.0 | 4.0 | 0.05 | 0.09 | 0.09 | 83 | 1003.7 |
| 20260902235542 | 57 | 256 | 1.0 | 4.0 | 0.05 | 0.09 | 0.09 | 83 | 1003.6 |
| 20260902235438 | 58 | 256 | 1.0 | 4.0 | 0.05 | 0.09 | 0.09 | 83 | 1003.7 |
| 20260902235344 | 58 | 256 | 2.0 | 5.0 | 0.05 | 0.09 | 0.09 | 83 | 1003.7 |
| 20260902235240 | 58 | 257 | 1.0 | 8.0 | 0.04 | 0.08 | 0.08 | 82 | 1003.7 |
| 20260902235208 | 58 | 257 | 1.0 | 8.0 | 0.04 | 0.08 | 0.08 | 82 | 1003.7 |
| 20260902235043 | 58 | 257 | 1.0 | 8.0 | 0.04 | 0.08 | 0.08 | 82 | 1003.8 |
| 20260902234950 | 58 | 257 | 2.0 | 8.0 | 0.04 | 0.08 | 0.08 | 82 | 1003.8 |
| 20260902234847 | 58 | 257 | 2.0 | 8.0 | 0.04 | 0.08 | 0.08 | 81 | 1003.8 |
| 20260902234753 | 58 | 257 | 2.0 | 8.0 | 0.04 | 0.08 | 0.08 | 81 | 1003.8 |
| 20260902234653 | 58 | 257 | 3.0 | 8.0 | 0.04 | 0.08 | 0.08 | 81 | 1003.7 |
| 20260902234548 | 58 | 257 | 4.0 | 8.0 | 0.04 | 0.08 | 0.08 | 81 | 1003.7 |
| 20260902234453 | 58 | 257 | 4.0 | 8.0 | 0.04 | 0.08 | 0.08 | 80 | 1003.8 |
| 20260902234349 | 58 | 256 | 4.0 | 8.0 | 0.02 | 0.06 | 0.06 | 79 | 1003.8 |
| 20260902234256 | 58 | 259 | 4.0 | 8.0 | 0.01 | 0.05 | 0.05 | 79 | 1003.8 |
| 20260902234157 | 58 | 260 | 5.0 | 8.0 | 0.01 | 0.05 | 0.05 | 79 | 1003.8 |
| 20260902234102 | 58 | 261 | 5.0 | 8.0 | 0.01 | 0.05 | 0.05 | 78 | 1003.7 |
| 20260902233938 | 58 | 265 | 5.0 | 8.0 | 0.00 | 0.04 | 0.04 | 77 | 1003.7 |
| 20260902233905 | 58 | 267 | 4.0 | 8.0 | 0.00 | 0.04 | 0.04 | 77 | 1003.7 |
| 20260902233740 | 58 | 225 | 5.0 | 7.0 | 0.00 | 0.04 | 0.04 | 77 | 1003.6 |
| 20260902233659 | 58 | 201 | 5.0 | 7.0 | 0.00 | 0.04 | 0.04 | 77 | 1003.6 |
| 20260902233547 | 58 | 201 | 5.0 | 7.0 | 0.00 | 0.04 | 0.04 | 77 | 1003.5 |
| 20260902233443 | 58 | 200 | 4.0 | 9.0 | 0.00 | 0.04 | 0.04 | 77 | 1003.5 |
| 20260902233350 | 58 | 200 | 3.0 | 9.0 | 0.00 | 0.04 | 0.04 | 77 | 1003.4 |
| 20260902233247 | 58 | 194 | 4.0 | 12.0 | 0.00 | 0.04 | 0.04 | 76 | 1003.4 |
| 20260902233145 | 58 | 194 | 5.0 | 12.0 | 0.00 | 0.04 | 0.04 | 76 | 1003.4 |
| 20260902233049 | 58 | 171 | 5.0 | 12.0 | 0.00 | 0.04 | 0.04 | 77 | 1003.4 |
| 20260902233015 | 58 | 179 | 5.0 | 12.0 | 0.00 | 0.04 | 0.04 | 77 | 1003.4 |
| 20260902232855 | 58 | 177 | 5.0 | 12.0 | 0.00 | 0.04 | 0.04 | 76 | 1003.4 |
| 20260902232801 | 58 | 177 | 5.0 | 12.0 | 0.00 | 0.04 | 0.04 | 76 | 1003.4 |
| 20260902232639 | 58 | 173 | 5.0 | 12.0 | 0.00 | 0.04 | 0.04 | 77 | 1003.4 |
| 20260902232554 | 58 | 201 | 5.0 | 12.0 | 0.00 | 0.04 | 0.04 | 76 | 1003.4 |
| 20260902232501 | 58 | 203 | 5.0 | 12.0 | 0.00 | 0.04 | 0.04 | 77 | 1003.4 |
| 20260902232358 | 57 | 178 | 5.0 | 10.0 | 0.00 | 0.04 | 0.04 | 77 | 1003.4 |
| 20260902232306 | 57 | 210 | 6.0 | 10.0 | 0.00 | 0.04 | 0.04 | 77 | 1003.3 |
| 20260902232153 | 57 | 173 | 5.0 | 11.0 | 0.00 | 0.04 | 0.04 | 77 | 1003.3 |
| 20260902232049 | 57 | 219 | 4.0 | 11.0 | 0.00 | 0.04 | 0.04 | 78 | 1003.4 |
| 20260902231946 | 57 | 151 | 5.0 | 11.0 | 0.00 | 0.04 | 0.04 | 77 | 1003.3 |
| 20260902231853 | 57 | 196 | 5.0 | 11.0 | 0.00 | 0.04 | 0.04 | 78 | 1003.3 |
| 20260902231750 | 57 | 175 | 4.0 | 11.0 | 0.00 | 0.04 | 0.04 | 77 | 1003.3 |
| 20260902231657 | 57 | 194 | 5.0 | 11.0 | 0.00 | 0.04 | 0.04 | 77 | 1003.4 |
| 20260902231553 | 57 | 151 | 6.0 | 11.0 | 0.00 | 0.04 | 0.04 | 77 | 1003.4 |
| 20260902231455 | 57 | 206 | 6.0 | 11.0 | 0.00 | 0.04 | 0.04 | 77 | 1003.4 |
| 20260902231340 | 57 | 150 | 6.0 | 11.0 | 0.00 | 0.04 | 0.04 | 77 | 1003.3 |
| 20260902231306 | 57 | 198 | 6.0 | 12.0 | 0.00 | 0.04 | 0.04 | 77 | 1003.3 |
| 20260902231145 | 57 | 202 | 5.0 | 12.0 | 0.00 | 0.04 | 0.04 | 77 | 1003.3 |
| 20260902231110 | 57 | 146 | 6.0 | 12.0 | 0.00 | 0.04 | 0.04 | 78 | 1003.3 |
| 20260902231007 | 57 | 185 | 6.0 | 12.0 | 0.00 | 0.04 | 0.04 | 78 | 1003.4 |
| 20260902230853 | 57 | 188 | 6.0 | 12.0 | 0.00 | 0.04 | 0.04 | 78 | 1003.4 |
| 20260902230755 | 57 | 194 | 6.0 | 12.0 | 0.00 | 0.04 | 0.04 | 78 | 1003.4 |
| 20260902230703 | 57 | 215 | 5.0 | 12.0 | 0.00 | 0.04 | 0.04 | 78 | 1003.4 |
| 20260902230539 | 57 | 177 | 6.0 | 12.0 | 0.00 | 0.04 | 0.04 | 78 | 1003.4 |
| 20260902230506 | 57 | 198 | 6.0 | 12.0 | 0.00 | 0.04 | 0.04 | 78 | 1003.4 |
| 20260902230343 | 57 | 202 | 5.0 | 11.0 | 0.00 | 0.04 | 0.04 | 78 | 1003.5 |
| 20260902230300 | 57 | 210 | 5.0 | 11.0 | 0.00 | 0.04 | 0.04 | 78 | 1003.4 |
| 20260902230206 | 57 | 167 | 5.0 | 11.0 | 0.00 | 0.04 | 0.04 | 78 | 1003.4 |
| 20260902230052 | 57 | 211 | 5.0 | 11.0 | 0.00 | 0.04 | 0.04 | 78 | 1003.4 |
| 20260902230017 | 57 | 185 | 4.0 | 11.0 | 0.00 | 0.04 | 0.04 | 78 | 1003.5 |
| 20260902225854 | 57 | 185 | 6.0 | 11.0 | 0.00 | 0.04 | 0.04 | 78 | 1003.5 |
| 20260902225757 | 57 | 166 | 6.0 | 15.0 | 0.00 | 0.04 | 0.04 | 78 | 1003.4 |
| 20260902225656 | 57 | 221 | 5.0 | 15.0 | 0.00 | 0.04 | 0.04 | 78 | 1003.4 |
| 20260902225559 | 57 | 143 | 5.0 | 15.0 | 0.00 | 0.04 | 0.04 | 78 | 1003.4 |
| 20260902225456 | 57 | 223 | 5.0 | 15.0 | 0.00 | 0.04 | 0.04 | 78 | 1003.4 |
| 20260902225401 | 58 | 172 | 4.0 | 15.0 | 0.00 | 0.04 | 0.04 | 78 | 1003.3 |
| 20260902225243 | 58 | 168 | 5.0 | 15.0 | 0.00 | 0.04 | 0.04 | 77 | 1003.3 |
| 20260902225212 | 58 | 188 | 7.0 | 15.0 | 0.00 | 0.04 | 0.04 | 76 | 1003.3 |
| 20260902225047 | 58 | 178 | 7.0 | 15.0 | 0.00 | 0.04 | 0.04 | 76 | 1003.4 |
| 20260902224953 | 58 | 147 | 6.0 | 15.0 | 0.00 | 0.04 | 0.04 | 76 | 1003.3 |
| 20260902224850 | 58 | 179 | 7.0 | 15.0 | 0.00 | 0.04 | 0.04 | 76 | 1003.4 |
| 20260902224747 | 58 | 183 | 6.0 | 15.0 | 0.00 | 0.04 | 0.04 | 76 | 1003.4 |
| 20260902224639 | 58 | 197 | 5.0 | 15.0 | 0.00 | 0.04 | 0.04 | 75 | 1003.4 |
| 20260902224556 | 58 | 204 | 6.0 | 16.0 | 0.00 | 0.04 | 0.04 | 75 | 1003.4 |
| 20260902224502 | 58 | 219 | 6.0 | 16.0 | 0.00 | 0.04 | 0.04 | 74 | 1003.4 |
| 20260902224339 | 58 | 135 | 6.0 | 16.0 | 0.00 | 0.04 | 0.04 | 74 | 1003.3 |
| 20260902224245 | 58 | 162 | 7.0 | 16.0 | 0.00 | 0.04 | 0.04 | 73 | 1003.3 |
| 20260902224144 | 58 | 198 | 6.0 | 16.0 | 0.00 | 0.04 | 0.04 | 73 | 1003.3 |
| 20260902224040 | 58 | 199 | 6.0 | 16.0 | 0.00 | 0.04 | 0.04 | 73 | 1003.2 |
| 20260902223951 | 58 | 160 | 8.0 | 16.0 | 0.00 | 0.04 | 0.04 | 73 | 1003.2 |
| 20260902223849 | 58 | 172 | 10.0 | 16.0 | 0.00 | 0.04 | 0.04 | 73 | 1003.1 |
| 20260902223756 | 58 | 209 | 8.0 | 16.0 | 0.00 | 0.04 | 0.04 | 73 | 1003.2 |
| 20260902223653 | 58 | 212 | 5.0 | 17.0 | 0.00 | 0.04 | 0.04 | 73 | 1003.1 |
| 20260902223558 | 58 | 202 | 7.0 | 25.0 | 0.00 | 0.04 | 0.04 | 73 | 1003.1 |
| 20260902223456 | 58 | 178 | 6.0 | 25.0 | 0.00 | 0.04 | 0.04 | 74 | 1003.1 |
| 20260902223337 | 58 | 160 | 6.0 | 25.0 | 0.00 | 0.04 | 0.04 | 73 | 1003.1 |
| 20260902223245 | 58 | 186 | 6.0 | 25.0 | 0.00 | 0.04 | 0.04 | 73 | 1003.1 |
| 20260902223204 | 58 | 156 | 9.0 | 25.0 | 0.00 | 0.04 | 0.04 | 73 | 1003.1 |
| 20260902223047 | 58 | 165 | 11.0 | 25.0 | 0.00 | 0.04 | 0.04 | 73 | 1003.1 |
| 20260902222944 | 58 | 140 | 10.0 | 25.0 | 0.00 | 0.04 | 0.04 | 73 | 1003.1 |
| 20260902222851 | 58 | 178 | 12.0 | 25.0 | 0.00 | 0.04 | 0.04 | 72 | 1003.0 |
| 20260902222748 | 58 | 218 | 11.0 | 25.0 | 0.00 | 0.04 | 0.04 | 72 | 1003.0 |
| 20260902222652 | 58 | 150 | 10.0 | 18.0 | 0.00 | 0.04 | 0.04 | 72 | 1002.8 |
| 20260902222559 | 58 | 177 | 10.0 | 18.0 | 0.00 | 0.04 | 0.04 | 73 | 1002.9 |
| 20260902222456 | 58 | 148 | 10.0 | 18.0 | 0.00 | 0.04 | 0.04 | 72 | 1003.0 |
| 20260902222342 | 58 | 162 | 9.0 | 18.0 | 0.00 | 0.04 | 0.04 | 72 | 1002.9 |
| 20260902222239 | 58 | 184 | 10.0 | 18.0 | 0.00 | 0.04 | 0.04 | 73 | 1003.0 |
| 20260902222207 | 58 | 156 | 9.0 | 18.0 | 0.00 | 0.04 | 0.04 | 73 | 1003.0 |
| 20260902222101 | 58 | 156 | 8.0 | 18.0 | 0.00 | 0.04 | 0.04 | 73 | 1002.9 |
| 20260902221947 | 58 | 157 | 9.0 | 18.0 | 0.00 | 0.04 | 0.04 | 72 | 1002.8 |
| 20260902221847 | 58 | 195 | 11.0 | 18.0 | 0.00 | 0.04 | 0.04 | 71 | 1002.8 |
| 20260902221743 | 58 | 150 | 9.0 | 18.0 | 0.01 | 0.04 | 0.04 | 71 | 1002.8 |
| 20260902221711 | 58 | 152 | 9.0 | 18.0 | 0.01 | 0.04 | 0.04 | 71 | 1002.7 |
| 20260902221551 | 58 | 171 | 11.0 | 18.0 | 0.01 | 0.04 | 0.04 | 71 | 1002.8 |
| 20260902221449 | 58 | 152 | 10.0 | 17.0 | 0.01 | 0.04 | 0.04 | 72 | 1002.8 |
| 20260902221356 | 58 | 111 | 9.0 | 22.0 | 0.01 | 0.04 | 0.04 | 71 | 1002.8 |
| 20260902221254 | 58 | 177 | 8.0 | 22.0 | 0.01 | 0.04 | 0.04 | 71 | 1003.0 |
| 20260902221201 | 58 | 195 | 8.0 | 22.0 | 0.01 | 0.04 | 0.04 | 71 | 1002.9 |
| 20260902221041 | 58 | 158 | 10.0 | 22.0 | 0.01 | 0.04 | 0.04 | 71 | 1002.9 |
| 20260902220939 | 58 | 188 | 10.0 | 22.0 | 0.01 | 0.04 | 0.04 | 71 | 1003.1 |
| 20260902220846 | 58 | 122 | 12.0 | 22.0 | 0.01 | 0.04 | 0.04 | 71 | 1003.0 |
| 20260902220743 | 58 | 144 | 11.0 | 22.0 | 0.01 | 0.04 | 0.04 | 71 | 1003.1 |
| 20260902220651 | 58 | 190 | 11.0 | 22.0 | 0.01 | 0.04 | 0.04 | 71 | 1003.1 |
| 20260902220547 | 58 | 173 | 12.0 | 22.0 | 0.01 | 0.04 | 0.04 | 71 | 1003.1 |
| 20260902220447 | 58 | 177 | 11.0 | 20.0 | 0.01 | 0.04 | 0.04 | 72 | 1003.2 |
| 20260902220350 | 58 | 158 | 8.0 | 21.0 | 0.01 | 0.04 | 0.04 | 72 | 1003.1 |
| 20260902220306 | 58 | 154 | 8.0 | 22.0 | 0.01 | 0.04 | 0.04 | 71 | 1003.1 |
| 20260902220148 | 58 | 219 | 11.0 | 22.0 | 0.01 | 0.04 | 0.04 | 72 | 1003.0 |
| 20260902220053 | 58 | 217 | 9.0 | 23.0 | 0.01 | 0.04 | 0.04 | 71 | 1003.0 |
| 20260902215949 | 58 | 140 | 7.0 | 23.0 | 0.01 | 0.04 | 0.04 | 72 | 1003.1 |
| 20260902215855 | 58 | 194 | 7.0 | 23.0 | 0.01 | 0.04 | 0.04 | 72 | 1003.1 |
| 20260902215737 | 58 | 220 | 8.0 | 23.0 | 0.01 | 0.04 | 0.04 | 72 | 1003.1 |
| 20260902215705 | 58 | 131 | 9.0 | 23.0 | 0.01 | 0.04 | 0.04 | 72 | 1003.1 |
| 20260902215541 | 58 | 142 | 11.0 | 23.0 | 0.01 | 0.04 | 0.04 | 72 | 1003.1 |
| 20260902215438 | 58 | 131 | 12.0 | 23.0 | 0.01 | 0.04 | 0.04 | 72 | 1003.1 |
| 20260902215345 | 58 | 130 | 13.0 | 23.0 | 0.01 | 0.04 | 0.04 | 72 | 1003.1 |
| 20260902215306 | 57 | 177 | 11.0 | 23.0 | 0.01 | 0.04 | 0.04 | 72 | 1003.2 |
| 20260902215150 | 57 | 194 | 10.0 | 20.0 | 0.01 | 0.04 | 0.04 | 73 | 1003.1 |
| 20260902215118 | 57 | 172 | 11.0 | 23.0 | 0.01 | 0.04 | 0.04 | 73 | 1003.1 |
| 20260902214953 | 57 | 214 | 10.0 | 19.0 | 0.01 | 0.04 | 0.04 | 74 | 1003.1 |
| 20260902214758 | 57 | 121 | 9.0 | 19.0 | 0.01 | 0.04 | 0.04 | 74 | 1003.1 |
| 20260902214656 | 57 | 151 | 9.0 | 19.0 | 0.02 | 0.04 | 0.04 | 75 | 1003.1 |
| 20260902214601 | 57 | 129 | 9.0 | 19.0 | 0.02 | 0.04 | 0.04 | 75 | 1003.1 |
| 20260902214458 | 57 | 160 | 8.0 | 19.0 | 0.02 | 0.04 | 0.04 | 75 | 1003.1 |
| 20260902214348 | 57 | 134 | 8.0 | 22.0 | 0.02 | 0.04 | 0.04 | 75 | 1003.1 |
| 20260902214244 | 57 | 164 | 7.0 | 22.0 | 0.02 | 0.04 | 0.04 | 75 | 1003.1 |
| 20260902214144 | 56 | 161 | 8.0 | 23.0 | 0.02 | 0.04 | 0.04 | 75 | 1003.2 |
| 20260902214048 | 56 | 142 | 11.0 | 23.0 | 0.02 | 0.04 | 0.04 | 75 | 1003.2 |
| 20260902213946 | 56 | 149 | 9.0 | 23.0 | 0.02 | 0.04 | 0.04 | 75 | 1003.3 |
| 20260902213912 | 56 | 144 | 6.0 | 23.0 | 0.02 | 0.04 | 0.04 | 75 | 1003.3 |
| 20260902213759 | 56 | 160 | 7.0 | 23.0 | 0.02 | 0.04 | 0.04 | 75 | 1003.3 |
| 20260902213700 | 56 | 173 | 10.0 | 23.0 | 0.02 | 0.04 | 0.04 | 76 | 1003.2 |
| 20260902213603 | 56 | 146 | 10.0 | 23.0 | 0.02 | 0.04 | 0.04 | 76 | 1003.2 |
| 20260902213439 | 56 | 183 | 9.0 | 23.0 | 0.02 | 0.04 | 0.04 | 76 | 1003.2 |
| 20260902213346 | 56 | 146 | 10.0 | 23.0 | 0.02 | 0.04 | 0.04 | 76 | 1003.2 |
| 20260902213241 | 56 | 195 | 10.0 | 23.0 | 0.02 | 0.04 | 0.04 | 76 | 1003.3 |
| 20260902213140 | 56 | 179 | 10.0 | 20.0 | 0.02 | 0.04 | 0.04 | 78 | 1003.3 |
| 20260902213103 | 56 | 171 | 10.0 | 19.0 | 0.02 | 0.04 | 0.04 | 77 | 1003.3 |
| 20260902212945 | 55 | 147 | 9.0 | 19.0 | 0.02 | 0.04 | 0.04 | 77 | 1003.3 |
| 20260902212847 | 55 | 185 | 8.0 | 19.0 | 0.02 | 0.04 | 0.04 | 77 | 1003.3 |
| 20260902212754 | 55 | 188 | 7.0 | 19.0 | 0.02 | 0.04 | 0.04 | 78 | 1003.3 |
| 20260902212723 | 55 | 171 | 8.0 | 24.0 | 0.02 | 0.04 | 0.04 | 78 | 1003.2 |
| 20260902212558 | 55 | 229 | 9.0 | 24.0 | 0.02 | 0.04 | 0.04 | 78 | 1003.2 |
| 20260902212525 | 55 | 175 | 10.0 | 24.0 | 0.02 | 0.04 | 0.04 | 78 | 1003.3 |
| 20260902212340 | 55 | 205 | 10.0 | 24.0 | 0.03 | 0.04 | 0.04 | 79 | 1003.2 |
| 20260902212238 | 55 | 134 | 8.0 | 24.0 | 0.03 | 0.04 | 0.04 | 79 | 1003.2 |
| 20260902212151 | 55 | 216 | 9.0 | 24.0 | 0.03 | 0.04 | 0.04 | 79 | 1003.2 |
| 20260902212047 | 55 | 194 | 10.0 | 24.0 | 0.03 | 0.04 | 0.04 | 79 | 1003.2 |
| 20260902211945 | 55 | 157 | 12.0 | 25.0 | 0.03 | 0.04 | 0.04 | 79 | 1003.2 |
| 20260902211851 | 55 | 156 | 12.0 | 25.0 | 0.03 | 0.04 | 0.04 | 79 | 1003.2 |
| 20260902211749 | 55 | 221 | 10.0 | 25.0 | 0.02 | 0.03 | 0.03 | 80 | 1003.2 |
| 20260902211657 | 55 | 176 | 9.0 | 25.0 | 0.02 | 0.03 | 0.03 | 79 | 1003.2 |
| 20260902211556 | 55 | 139 | 10.0 | 25.0 | 0.02 | 0.03 | 0.03 | 80 | 1003.2 |
| 20260902211503 | 55 | 140 | 9.0 | 25.0 | 0.02 | 0.03 | 0.03 | 80 | 1003.3 |
| 20260902211400 | 55 | 148 | 10.0 | 25.0 | 0.02 | 0.03 | 0.03 | 80 | 1003.2 |
| 20260902211245 | 55 | 175 | 11.0 | 25.0 | 0.02 | 0.03 | 0.03 | 80 | 1003.2 |
| 20260902211142 | 55 | 179 | 10.0 | 25.0 | 0.02 | 0.03 | 0.03 | 80 | 1003.2 |
| 20260902211038 | 55 | 156 | 8.0 | 19.0 | 0.02 | 0.03 | 0.03 | 80 | 1003.2 |
| 20260902210943 | 55 | 151 | 9.0 | 19.0 | 0.02 | 0.03 | 0.03 | 80 | 1003.3 |
| 20260902210853 | 55 | 173 | 10.0 | 19.0 | 0.02 | 0.03 | 0.03 | 80 | 1003.2 |
| 20260902210758 | 55 | 180 | 11.0 | 19.0 | 0.02 | 0.03 | 0.03 | 80 | 1003.2 |
| 20260902210655 | 55 | 181 | 11.0 | 21.0 | 0.02 | 0.03 | 0.03 | 81 | 1003.2 |
| 20260902210548 | 55 | 144 | 9.0 | 21.0 | 0.02 | 0.03 | 0.03 | 81 | 1003.2 |
| 20260902210454 | 55 | 134 | 9.0 | 21.0 | 0.02 | 0.03 | 0.03 | 81 | 1003.3 |
| 20260902210352 | 55 | 148 | 10.0 | 21.0 | 0.02 | 0.03 | 0.03 | 80 | 1003.2 |
| 20260902210308 | 55 | 168 | 11.0 | 21.0 | 0.02 | 0.03 | 0.03 | 80 | 1003.2 |
| 20260902210156 | 55 | 146 | 9.0 | 21.0 | 0.02 | 0.03 | 0.03 | 80 | 1003.3 |
| 20260902205938 | 55 | 141 | 11.0 | 21.0 | 0.02 | 0.03 | 0.03 | 80 | 1003.3 |
| 20260902205843 | 55 | 154 | 10.0 | 19.0 | 0.02 | 0.03 | 0.03 | 81 | 1003.3 |
| 20260902205808 | 55 | 183 | 9.0 | 19.0 | 0.02 | 0.03 | 0.03 | 80 | 1003.2 |
| 20260902205645 | 55 | 128 | 10.0 | 19.0 | 0.02 | 0.03 | 0.03 | 81 | 1003.3 |
| 20260902205550 | 55 | 164 | 9.0 | 19.0 | 0.02 | 0.03 | 0.03 | 80 | 1003.3 |
| 20260902205447 | 55 | 133 | 9.0 | 19.0 | 0.02 | 0.03 | 0.03 | 80 | 1003.3 |
| 20260902205357 | 55 | 127 | 9.0 | 19.0 | 0.02 | 0.03 | 0.03 | 80 | 1003.3 |
| 20260902205255 | 55 | 194 | 9.0 | 19.0 | 0.02 | 0.03 | 0.03 | 80 | 1003.3 |
| 20260902205202 | 55 | 167 | 9.0 | 19.0 | 0.02 | 0.03 | 0.03 | 80 | 1003.3 |
| 20260902205057 | 55 | 202 | 10.0 | 19.0 | 0.02 | 0.03 | 0.03 | 80 | 1003.3 |
| 20260902204941 | 55 | 116 | 10.0 | 19.0 | 0.02 | 0.03 | 0.03 | 79 | 1003.3 |
| 20260902204839 | 55 | 174 | 10.0 | 19.0 | 0.02 | 0.03 | 0.03 | 79 | 1003.4 |
| 20260902204742 | 55 | 173 | 9.0 | 19.0 | 0.02 | 0.03 | 0.03 | 79 | 1003.4 |
| 20260902204646 | 55 | 139 | 8.0 | 19.0 | 0.01 | 0.02 | 0.02 | 79 | 1003.4 |
| 20260902204550 | 55 | 200 | 7.0 | 19.0 | 0.01 | 0.02 | 0.02 | 79 | 1003.4 |
| 20260902204447 | 55 | 214 | 8.0 | 19.0 | 0.01 | 0.02 | 0.02 | 79 | 1003.4 |
| 20260902204345 | 55 | 167 | 8.0 | 19.0 | 0.01 | 0.02 | 0.02 | 79 | 1003.4 |
| 20260902204310 | 55 | 159 | 7.0 | 19.0 | 0.01 | 0.02 | 0.02 | 79 | 1003.4 |
| 20260902204157 | 55 | 175 | 8.0 | 19.0 | 0.01 | 0.02 | 0.02 | 79 | 1003.3 |
| 20260902204053 | 55 | 156 | 10.0 | 19.0 | 0.01 | 0.02 | 0.02 | 79 | 1003.4 |
| 20260902203958 | 55 | 207 | 10.0 | 18.0 | 0.01 | 0.02 | 0.02 | 79 | 1003.3 |
| 20260902203838 | 55 | 183 | 9.0 | 18.0 | 0.01 | 0.02 | 0.02 | 79 | 1003.3 |
| 20260902203803 | 55 | 190 | 8.0 | 18.0 | 0.01 | 0.02 | 0.02 | 79 | 1003.3 |
| 20260902203703 | 55 | 175 | 9.0 | 18.0 | 0.01 | 0.02 | 0.02 | 79 | 1003.3 |
| 20260902203607 | 55 | 149 | 9.0 | 15.0 | 0.01 | 0.02 | 0.02 | 79 | 1003.4 |
| 20260902203443 | 55 | 183 | 8.0 | 15.0 | 0.01 | 0.02 | 0.02 | 79 | 1003.4 |
| 20260902203349 | 55 | 177 | 7.0 | 21.0 | 0.02 | 0.02 | 0.02 | 80 | 1003.3 |
| 20260902203245 | 55 | 154 | 7.0 | 21.0 | 0.02 | 0.02 | 0.02 | 79 | 1003.3 |
| 20260902203155 | 55 | 183 | 8.0 | 21.0 | 0.02 | 0.02 | 0.02 | 79 | 1003.3 |
| 20260902203049 | 55 | 173 | 8.0 | 21.0 | 0.02 | 0.02 | 0.02 | 78 | 1003.3 |
| 20260902202955 | 55 | 181 | 8.0 | 21.0 | 0.02 | 0.02 | 0.02 | 78 | 1003.2 |
| 20260902202853 | 55 | 152 | 8.0 | 23.0 | 0.02 | 0.02 | 0.02 | 78 | 1003.3 |
| 20260902202759 | 56 | 174 | 7.0 | 23.0 | 0.02 | 0.02 | 0.02 | 78 | 1003.3 |
| 20260902202658 | 56 | 130 | 7.0 | 23.0 | 0.02 | 0.02 | 0.02 | 78 | 1003.4 |
| 20260902202553 | 56 | 152 | 9.0 | 23.0 | 0.02 | 0.02 | 0.02 | 78 | 1003.4 |
| 20260902202503 | 56 | 172 | 8.0 | 23.0 | 0.02 | 0.02 | 0.02 | 78 | 1003.3 |
| 20260902202339 | 56 | 192 | 8.0 | 23.0 | 0.01 | 0.01 | 0.01 | 77 | 1003.4 |
| 20260902202243 | 56 | 143 | 9.0 | 23.0 | 0.01 | 0.01 | 0.01 | 77 | 1003.4 |
| 20260902202211 | 56 | 212 | 10.0 | 23.0 | 0.01 | 0.01 | 0.01 | 76 | 1003.4 |
| 20260902202044 | 56 | 166 | 13.0 | 23.0 | 0.01 | 0.01 | 0.01 | 76 | 1003.3 |
| 20260902202010 | 56 | 176 | 11.0 | 23.0 | 0.01 | 0.01 | 0.01 | 76 | 1003.4 |
| 20260902201856 | 56 | 230 | 11.0 | 21.0 | 0.01 | 0.01 | 0.01 | 76 | 1003.4 |
| 20260902201738 | 56 | 200 | 12.0 | 20.0 | 0.01 | 0.01 | 0.01 | 76 | 1003.4 |
| 20260902201706 | 56 | 198 | 12.0 | 20.0 | 0.01 | 0.01 | 0.01 | 75 | 1003.4 |
| 20260902201540 | 56 | 177 | 10.0 | 18.0 | 0.01 | 0.01 | 0.01 | 75 | 1003.4 |
| 20260902201438 | 56 | 214 | 9.0 | 18.0 | 0.01 | 0.01 | 0.01 | 76 | 1003.5 |
| 20260902201403 | 56 | 219 | 10.0 | 17.0 | 0.01 | 0.01 | 0.01 | 76 | 1003.4 |
| 20260902201240 | 56 | 157 | 8.0 | 17.0 | 0.01 | 0.01 | 0.01 | 76 | 1003.5 |
| 20260902201207 | 56 | 167 | 8.0 | 17.0 | 0.01 | 0.01 | 0.01 | 75 | 1003.6 |
| 20260902201101 | 56 | 206 | 9.0 | 17.0 | 0.01 | 0.01 | 0.01 | 74 | 1003.4 |
| 20260902200949 | 56 | 182 | 8.0 | 17.0 | 0.01 | 0.01 | 0.01 | 74 | 1003.5 |
| 20260902200855 | 56 | 158 | 9.0 | 17.0 | 0.01 | 0.01 | 0.01 | 75 | 1003.4 |
| 20260902200753 | 56 | 185 | 9.0 | 17.0 | 0.01 | 0.01 | 0.01 | 75 | 1003.5 |
| 20260902200701 | 56 | 206 | 10.0 | 17.0 | 0.01 | 0.01 | 0.01 | 75 | 1003.6 |
| 20260902200537 | 56 | 228 | 9.0 | 17.0 | 0.01 | 0.01 | 0.01 | 75 | 1003.4 |
| 20260902200455 | 56 | 198 | 9.0 | 16.0 | 0.01 | 0.01 | 0.01 | 76 | 1003.5 |
| 20260902200400 | 56 | 169 | 9.0 | 16.0 | 0.01 | 0.01 | 0.01 | 76 | 1003.5 |
| 20260902200253 | 56 | 203 | 9.0 | 16.0 | 0.01 | 0.01 | 0.01 | 76 | 1003.5 |
| 20260902200148 | 56 | 187 | 9.0 | 16.0 | 0.01 | 0.01 | 0.01 | 76 | 1003.5 |
| 20260902195948 | 56 | 215 | 8.0 | 14.0 | 0.01 | 0.01 | 0.01 | 77 | 1003.5 |
| 20260902195846 | 56 | 185 | 8.0 | 14.0 | 0.01 | 0.01 | 0.01 | 78 | 1003.4 |
| 20260902195754 | 56 | 210 | 7.0 | 14.0 | 0.01 | 0.01 | 0.01 | 78 | 1003.4 |
| 20260902195656 | 56 | 148 | 8.0 | 14.0 | 0.01 | 0.01 | 0.01 | 78 | 1003.4 |
| 20260902195552 | 56 | 156 | 10.0 | 14.0 | 0.01 | 0.01 | 0.01 | 78 | 1003.4 |
| 20260902195438 | 56 | 165 | 8.0 | 16.0 | 0.01 | 0.01 | 0.01 | 78 | 1003.5 |
| 20260902195354 | 56 | 148 | 7.0 | 16.0 | 0.01 | 0.01 | 0.01 | 78 | 1003.6 |
| 20260902195301 | 56 | 205 | 8.0 | 16.0 | 0.01 | 0.01 | 0.01 | 79 | 1003.5 |
| 20260902195201 | 56 | 142 | 9.0 | 16.0 | 0.01 | 0.01 | 0.01 | 79 | 1003.6 |
| 20260902195043 | 56 | 198 | 7.0 | 15.0 | 0.01 | 0.01 | 0.01 | 80 | 1003.6 |
| 20260902194947 | 56 | 158 | 7.0 | 15.0 | 0.01 | 0.01 | 0.01 | 79 | 1003.6 |
| 20260902194849 | 56 | 169 | 7.0 | 15.0 | 0.01 | 0.01 | 0.01 | 79 | 1003.6 |
| 20260902194756 | 56 | 142 | 7.0 | 15.0 | 0.01 | 0.01 | 0.01 | 79 | 1003.5 |
| 20260902194655 | 56 | 166 | 7.0 | 15.0 | 0.01 | 0.01 | 0.01 | 79 | 1003.6 |
| 20260902194551 | 56 | 204 | 7.0 | 15.0 | 0.01 | 0.01 | 0.01 | 79 | 1003.6 |
| 20260902194458 | 56 | 154 | 6.0 | 14.0 | 0.01 | 0.01 | 0.01 | 79 | 1003.6 |
| 20260902194356 | 56 | 202 | 6.0 | 16.0 | 0.01 | 0.01 | 0.01 | 79 | 1003.7 |
| 20260902194305 | 56 | 179 | 7.0 | 16.0 | 0.01 | 0.01 | 0.01 | 78 | 1003.7 |
| 20260902194143 | 56 | 195 | 6.0 | 16.0 | 0.01 | 0.01 | 0.01 | 78 | 1003.7 |
| 20260902194047 | 57 | 149 | 6.0 | 16.0 | 0.01 | 0.01 | 0.01 | 78 | 1003.7 |
| 20260902194004 | 57 | 215 | 6.0 | 16.0 | 0.01 | 0.01 | 0.01 | 78 | 1003.7 |
| 20260902193848 | 57 | 168 | 6.0 | 16.0 | 0.01 | 0.01 | 0.01 | 77 | 1003.7 |
| 20260902193753 | 57 | 190 | 7.0 | 16.0 | 0.01 | 0.01 | 0.01 | 77 | 1003.7 |
| 20260902193650 | 57 | 198 | 7.0 | 16.0 | 0.01 | 0.01 | 0.01 | 77 | 1003.7 |
| 20260902193613 | 57 | 169 | 8.0 | 16.0 | 0.01 | 0.01 | 0.01 | 77 | 1003.7 |
| 20260902193453 | 57 | 190 | 8.0 | 14.0 | 0.00 | 0.00 | 0.00 | 76 | 1003.7 |
| 20260902193359 | 57 | 158 | 7.0 | 13.0 | 0.00 | 0.00 | 0.00 | 76 | 1003.7 |
| 20260902193255 | 57 | 169 | 5.0 | 13.0 | 0.00 | 0.00 | 0.00 | 77 | 1003.7 |
| 20260902193222 | 57 | 156 | 5.0 | 13.0 | 0.00 | 0.00 | 0.00 | 76 | 1003.7 |
| 20260902193105 | 57 | 169 | 6.0 | 13.0 | 0.00 | 0.00 | 0.00 | 76 | 1003.7 |
| 20260902193000 | 57 | 181 | 7.0 | 13.0 | 0.00 | 0.00 | 0.00 | 76 | 1003.7 |
| 20260902192905 | 57 | 161 | 7.0 | 13.0 | 0.00 | 0.00 | 0.00 | 75 | 1003.7 |
| 20260902192807 | 58 | 210 | 6.0 | 13.0 | 0.00 | 0.00 | 0.00 | 75 | 1003.7 |
| 20260902192644 | 58 | 179 | 6.0 | 13.0 | 0.00 | 0.00 | 0.00 | 75 | 1003.7 |
| 20260902192552 | 58 | 186 | 7.0 | 13.0 | 0.00 | 0.00 | 0.00 | 74 | 1003.7 |
| 20260902192450 | 58 | 164 | 8.0 | 15.0 | 0.00 | 0.00 | 0.00 | 74 | 1003.7 |
| 20260902192356 | 58 | 212 | 5.0 | 11.0 | 0.00 | 0.00 | 0.00 | 74 | 1003.7 |
| 20260902192313 | 58 | 159 | 5.0 | 12.0 | 0.00 | 0.00 | 0.00 | 74 | 1003.7 |
| 20260902192200 | 58 | 160 | 5.0 | 12.0 | 0.00 | 0.00 | 0.00 | 73 | 1003.7 |
| 20260902192055 | 58 | 201 | 6.0 | 12.0 | 0.00 | 0.00 | 0.00 | 73 | 1003.7 |
| 20260902192003 | 58 | 173 | 6.0 | 12.0 | 0.00 | 0.00 | 0.00 | 72 | 1003.7 |
| 20260902191844 | 58 | 175 | 6.0 | 12.0 | 0.00 | 0.00 | 0.00 | 71 | 1003.7 |
| 20260902191811 | 58 | 173 | 6.0 | 12.0 | 0.00 | 0.00 | 0.00 | 71 | 1003.7 |
| 20260902191649 | 58 | 208 | 7.0 | 12.0 | 0.00 | 0.00 | 0.00 | 70 | 1003.7 |
| 20260902191545 | 58 | 206 | 6.0 | 12.0 | 0.00 | 0.00 | 0.00 | 69 | 1003.6 |
| 20260902191512 | 58 | 242 | 5.0 | 11.0 | 0.00 | 0.00 | 0.00 | 69 | 1003.6 |
| 20260902191358 | 58 | 190 | 5.0 | 11.0 | 0.00 | 0.00 | 0.00 | 69 | 1003.6 |
| 20260902191256 | 59 | 193 | 6.0 | 15.0 | 0.00 | 0.00 | 0.00 | 69 | 1003.6 |
| 20260902191207 | 59 | 167 | 8.0 | 15.0 | 0.00 | 0.00 | 0.00 | 69 | 1003.6 |
| 20260902191044 | 59 | 184 | 7.0 | 15.0 | 0.00 | 0.00 | 0.00 | 68 | 1003.6 |
| 20260902190940 | 59 | 202 | 5.0 | 15.0 | 0.00 | 0.00 | 0.00 | 68 | 1003.6 |
| 20260902190846 | 59 | 173 | 4.0 | 15.0 | 0.00 | 0.00 | 0.00 | 68 | 1003.6 |
| 20260902190744 | 59 | 208 | 5.0 | 18.0 | 0.00 | 0.00 | 0.00 | 67 | 1003.6 |
| 20260902190651 | 59 | 170 | 8.0 | 18.0 | 0.00 | 0.00 | 0.00 | 67 | 1003.6 |
| 20260902190615 | 59 | 158 | 9.0 | 18.0 | 0.00 | 0.00 | 0.00 | 67 | 1003.6 |
| 20260902190453 | 59 | 167 | 8.0 | 18.0 | 0.00 | 0.00 | 0.00 | 66 | 1003.6 |
| 20260902190359 | 59 | 140 | 8.0 | 18.0 | 0.00 | 0.00 | 0.00 | 65 | 1003.6 |
| 20260902190315 | 59 | 186 | 8.0 | 18.0 | 0.00 | 0.00 | 0.00 | 65 | 1003.6 |
| 20260902190219 | 60 | 171 | 6.0 | 18.0 | 0.00 | 0.00 | 0.00 | 65 | 1003.6 |
| 20260902190058 | 60 | 140 | 7.0 | 18.0 | 0.00 | 0.00 | 0.00 | 64 | 1003.6 |
| 20260902185956 | 60 | 179 | 8.0 | 18.0 | 0.00 | 0.00 | 0.00 | 64 | 1003.6 |
| 20260902185923 | 60 | 144 | 7.0 | 17.0 | 0.00 | 0.00 | 0.00 | 63 | 1003.6 |
| 20260902185738 | 60 | 139 | 9.0 | 17.0 | 0.00 | 0.00 | 0.00 | 62 | 1003.6 |
| 20260902185649 | 60 | 194 | 9.0 | 17.0 | 0.00 | 0.00 | 0.00 | 61 | 1003.6 |
| 20260902185544 | 60 | 194 | 9.0 | 13.0 | 0.00 | 0.00 | 0.00 | 61 | 1003.5 |
| 20260902185441 | 60 | 199 | 8.0 | 14.0 | 0.00 | 0.00 | 0.00 | 61 | 1003.5 |
| 20260902185406 | 60 | 176 | 7.0 | 19.0 | 0.00 | 0.00 | 0.00 | 61 | 1003.6 |
| 20260902185252 | 60 | 163 | 6.0 | 20.0 | 0.00 | 0.00 | 0.00 | 61 | 1003.6 |
| 20260902185151 | 60 | 141 | 5.0 | 20.0 | 0.00 | 0.00 | 0.00 | 60 | 1003.5 |
| 20260902185055 | 60 | 161 | 6.0 | 20.0 | 0.00 | 0.00 | 0.00 | 60 | 1003.5 |
| 20260902184956 | 60 | 167 | 8.0 | 20.0 | 0.00 | 0.00 | 0.00 | 60 | 1003.5 |
| 20260902184900 | 61 | 212 | 8.0 | 20.0 | 0.00 | 0.00 | 0.00 | 59 | 1003.5 |
| 20260902184756 | 61 | 187 | 8.0 | 20.0 | 0.00 | 0.00 | 0.00 | 59 | 1003.4 |
| 20260902184704 | 61 | 169 | 9.0 | 20.0 | 0.00 | 0.00 | 0.00 | 59 | 1003.4 |
| 20260902184554 | 61 | 181 | 11.0 | 20.0 | 0.00 | 0.00 | 0.00 | 58 | 1003.4 |
| 20260902184458 | 61 | 167 | 12.0 | 20.0 | 0.00 | 0.00 | 0.00 | 58 | 1003.5 |
| 20260902184353 | 61 | 217 | 12.0 | 20.0 | 0.00 | 0.00 | 0.00 | 57 | 1003.4 |
| 20260902184300 | 61 | 190 | 11.0 | 18.0 | 0.00 | 0.00 | 0.00 | 57 | 1003.4 |
| 20260902184142 | 61 | 173 | 11.0 | 18.0 | 0.00 | 0.00 | 0.00 | 56 | 1003.4 |
| 20260902184038 | 62 | 177 | 8.0 | 17.0 | 0.00 | 0.00 | 0.00 | 56 | 1003.4 |
| 20260902184003 | 62 | 160 | 7.0 | 17.0 | 0.00 | 0.00 | 0.00 | 56 | 1003.4 |
| 20260902183839 | 62 | 148 | 7.0 | 17.0 | 0.00 | 0.00 | 0.00 | 54 | 1003.3 |
| 20260902183805 | 62 | 184 | 7.0 | 17.0 | 0.00 | 0.00 | 0.00 | 54 | 1003.3 |
| 20260902183644 | 62 | 191 | 7.0 | 22.0 | 0.00 | 0.00 | 0.00 | 54 | 1003.3 |
| 20260902183552 | 62 | 143 | 9.0 | 22.0 | 0.00 | 0.00 | 0.00 | 53 | 1003.3 |
| 20260902183449 | 62 | 180 | 10.0 | 22.0 | 0.00 | 0.00 | 0.00 | 53 | 1003.3 |
| 20260902183415 | 62 | 237 | 10.0 | 22.0 | 0.00 | 0.00 | 0.00 | 53 | 1003.3 |
| 20260902183250 | 62 | 155 | 10.0 | 22.0 | 0.00 | 0.00 | 0.00 | 53 | 1003.3 |
| 20260902183159 | 62 | 164 | 9.0 | 22.0 | 0.00 | 0.00 | 0.00 | 53 | 1003.3 |
| 20260902183054 | 62 | 205 | 8.0 | 22.0 | 0.00 | 0.00 | 0.00 | 52 | 1003.2 |
| 20260902182951 | 62 | 215 | 11.0 | 22.0 | 0.00 | 0.00 | 0.00 | 53 | 1003.3 |
| 20260902182900 | 61 | 192 | 11.0 | 22.0 | 0.00 | 0.00 | 0.00 | 53 | 1003.2 |
| 20260902182756 | 61 | 185 | 10.0 | 22.0 | 0.00 | 0.00 | 0.00 | 53 | 1003.1 |
| 20260902182705 | 61 | 167 | 8.0 | 22.0 | 0.00 | 0.00 | 0.00 | 53 | 1003.1 |
| 20260902182540 | 61 | 160 | 9.0 | 15.0 | 0.00 | 0.00 | 0.00 | 53 | 1003.2 |
| 20260902182438 | 61 | 159 | 8.0 | 17.0 | 0.00 | 0.00 | 0.00 | 53 | 1003.2 |
| 20260902182343 | 61 | 217 | 5.0 | 14.0 | 0.00 | 0.00 | 0.00 | 54 | 1003.3 |
| 20260902182243 | 61 | 204 | 7.0 | 14.0 | 0.00 | 0.00 | 0.00 | 53 | 1003.2 |
| 20260902182148 | 61 | 152 | 8.0 | 14.0 | 0.00 | 0.00 | 0.00 | 53 | 1003.2 |
| 20260902182045 | 61 | 171 | 7.0 | 15.0 | 0.00 | 0.00 | 0.00 | 54 | 1003.2 |
| 20260902181952 | 61 | 174 | 6.0 | 19.0 | 0.00 | 0.00 | 0.00 | 54 | 1003.2 |
| 20260902181919 | 61 | 136 | 6.0 | 19.0 | 0.00 | 0.00 | 0.00 | 54 | 1003.1 |
| 20260902181756 | 61 | 157 | 8.0 | 19.0 | 0.00 | 0.00 | 0.00 | 54 | 1003.2 |
| 20260902181654 | 61 | 136 | 6.0 | 19.0 | 0.00 | 0.00 | 0.00 | 54 | 1003.2 |
| 20260902181559 | 61 | 158 | 6.0 | 19.0 | 0.00 | 0.00 | 0.00 | 54 | 1003.2 |
| 20260902181440 | 61 | 198 | 7.0 | 19.0 | 0.00 | 0.00 | 0.00 | 54 | 1003.2 |
| 20260902181337 | 61 | 169 | 8.0 | 19.0 | 0.00 | 0.00 | 0.00 | 54 | 1003.2 |
| 20260902181243 | 61 | 198 | 10.0 | 19.0 | 0.00 | 0.00 | 0.00 | 54 | 1003.2 |
| 20260902181211 | 61 | 152 | 10.0 | 19.0 | 0.00 | 0.00 | 0.00 | 54 | 1003.2 |
| 20260902181046 | 61 | 148 | 8.0 | 19.0 | 0.00 | 0.00 | 0.00 | 54 | 1003.2 |
| 20260902180944 | 61 | 204 | 6.0 | 19.0 | 0.00 | 0.00 | 0.00 | 54 | 1003.2 |
| 20260902180854 | 61 | 154 | 7.0 | 19.0 | 0.00 | 0.00 | 0.00 | 54 | 1003.2 |
| 20260902180751 | 61 | 191 | 7.0 | 19.0 | 0.00 | 0.00 | 0.00 | 54 | 1003.2 |
| 20260902180659 | 61 | 140 | 8.0 | 19.0 | 0.00 | 0.00 | 0.00 | 54 | 1003.2 |
| 20260902180555 | 61 | 163 | 8.0 | 20.0 | 0.00 | 0.00 | 0.00 | 55 | 1003.3 |
| 20260902180520 | 61 | 157 | 9.0 | 20.0 | 0.00 | 0.00 | 0.00 | 54 | 1003.2 |
| 20260902180425 | 61 | 160 | 10.0 | 20.0 | 0.00 | 0.00 | 0.00 | 55 | 1003.3 |
| 20260902180340 | 61 | 185 | 10.0 | 20.0 | 0.00 | 0.00 | 0.00 | 55 | 1003.3 |
| 20260902180204 | 61 | 173 | 10.0 | 20.0 | 0.00 | 0.00 | 0.00 | 54 | 1003.3 |
| 20260902180043 | 61 | 146 | 10.0 | 20.0 | 0.00 | 0.00 | 0.00 | 54 | 1003.3 |
| 20260902175948 | 61 | 146 | 10.0 | 20.0 | 0.00 | 0.00 | 0.00 | 55 | 1003.3 |
| 20260902175913 | 61 | 169 | 10.0 | 20.0 | 0.00 | 0.00 | 0.00 | 55 | 1003.2 |
| 20260902175747 | 61 | 177 | 10.0 | 20.0 | 0.00 | 0.00 | 0.00 | 55 | 1003.3 |
| 20260902175656 | 61 | 183 | 9.0 | 19.0 | 0.00 | 0.00 | 0.00 | 55 | 1003.2 |
| 20260902175619 | 61 | 202 | 10.0 | 19.0 | 0.00 | 0.00 | 0.00 | 55 | 1003.3 |
| 20260902175455 | 61 | 171 | 9.0 | 20.0 | 0.00 | 0.00 | 0.00 | 55 | 1003.3 |
| 20260902175350 | 61 | 204 | 8.0 | 19.0 | 0.00 | 0.00 | 0.00 | 55 | 1003.2 |
| 20260902175240 | 61 | 165 | 9.0 | 19.0 | 0.00 | 0.00 | 0.00 | 56 | 1003.3 |
| 20260902175139 | 61 | 190 | 9.0 | 19.0 | 0.00 | 0.00 | 0.00 | 55 | 1003.2 |
| 20260902175101 | 61 | 135 | 10.0 | 19.0 | 0.00 | 0.00 | 0.00 | 55 | 1003.2 |
| 20260902174958 | 61 | 149 | 9.0 | 19.0 | 0.00 | 0.00 | 0.00 | 55 | 1003.2 |
| 20260902174924 | 61 | 204 | 8.0 | 19.0 | 0.00 | 0.00 | 0.00 | 55 | 1003.2 |
| 20260902174738 | 61 | 223 | 7.0 | 16.0 | 0.00 | 0.00 | 0.00 | 55 | 1003.2 |
| 20260902174706 | 61 | 183 | 8.0 | 16.0 | 0.00 | 0.00 | 0.00 | 55 | 1003.2 |
| 20260902174544 | 61 | 162 | 7.0 | 16.0 | 0.00 | 0.00 | 0.00 | 56 | 1003.2 |
| 20260902174448 | 61 | 183 | 8.0 | 18.0 | 0.00 | 0.00 | 0.00 | 56 | 1003.2 |
| 20260902174344 | 61 | 159 | 8.0 | 18.0 | 0.00 | 0.00 | 0.00 | 56 | 1003.2 |
| 20260902174309 | 61 | 154 | 5.0 | 18.0 | 0.00 | 0.00 | 0.00 | 56 | 1003.2 |
| 20260902174156 | 61 | 221 | 6.0 | 18.0 | 0.00 | 0.00 | 0.00 | 56 | 1003.2 |
| 20260902174048 | 61 | 168 | 8.0 | 18.0 | 0.00 | 0.00 | 0.00 | 56 | 1003.3 |
| 20260902173954 | 61 | 160 | 10.0 | 18.0 | 0.00 | 0.00 | 0.00 | 56 | 1003.2 |
| 20260902173850 | 61 | 177 | 7.0 | 18.0 | 0.00 | 0.00 | 0.00 | 56 | 1003.3 |
| 20260902173800 | 61 | 163 | 7.0 | 18.0 | 0.00 | 0.00 | 0.00 | 56 | 1003.2 |
| 20260902173658 | 61 | 188 | 8.0 | 18.0 | 0.00 | 0.00 | 0.00 | 56 | 1003.2 |
| 20260902173552 | 61 | 158 | 6.0 | 18.0 | 0.00 | 0.00 | 0.00 | 56 | 1003.2 |
| 20260902173458 | 61 | 163 | 5.0 | 18.0 | 0.00 | 0.00 | 0.00 | 56 | 1003.3 |
| 20260902173355 | 61 | 158 | 6.0 | 18.0 | 0.00 | 0.00 | 0.00 | 56 | 1003.3 |
| 20260902173259 | 61 | 127 | 7.0 | 18.0 | 0.00 | 0.00 | 0.00 | 56 | 1003.3 |
| 20260902173156 | 61 | 182 | 10.0 | 18.0 | 0.00 | 0.00 | 0.00 | 56 | 1003.3 |
| 20260902173104 | 61 | 154 | 12.0 | 19.0 | 0.00 | 0.00 | 0.00 | 56 | 1003.3 |
| 20260902172942 | 61 | 188 | 11.0 | 19.0 | 0.00 | 0.00 | 0.00 | 56 | 1003.3 |
| 20260902172839 | 61 | 165 | 9.0 | 18.0 | 0.00 | 0.00 | 0.00 | 56 | 1003.3 |
| 20260902172745 | 61 | 158 | 8.0 | 18.0 | 0.00 | 0.00 | 0.00 | 56 | 1003.3 |
| 20260902172705 | 61 | 192 | 9.0 | 19.0 | 0.00 | 0.00 | 0.00 | 56 | 1003.2 |
| 20260902172546 | 61 | 169 | 11.0 | 19.0 | 0.00 | 0.00 | 0.00 | 56 | 1003.2 |
| 20260902172451 | 61 | 188 | 12.0 | 19.0 | 0.00 | 0.00 | 0.00 | 56 | 1003.3 |
| 20260902172351 | 61 | 136 | 10.0 | 19.0 | 0.00 | 0.00 | 0.00 | 56 | 1003.2 |
| 20260902172258 | 61 | 140 | 8.0 | 19.0 | 0.00 | 0.00 | 0.00 | 56 | 1003.3 |
| 20260902172216 | 61 | 212 | 8.0 | 16.0 | 0.00 | 0.00 | 0.00 | 56 | 1003.3 |
| 20260902172059 | 61 | 171 | 10.0 | 16.0 | 0.00 | 0.00 | 0.00 | 56 | 1003.3 |
| 20260902171955 | 61 | 167 | 8.0 | 19.0 | 0.00 | 0.00 | 0.00 | 56 | 1003.3 |
| 20260902171901 | 61 | 186 | 7.0 | 18.0 | 0.00 | 0.00 | 0.00 | 56 | 1003.3 |
| 20260902171757 | 61 | 167 | 9.0 | 18.0 | 0.00 | 0.00 | 0.00 | 56 | 1003.3 |
| 20260902171705 | 61 | 198 | 9.0 | 18.0 | 0.00 | 0.00 | 0.00 | 56 | 1003.3 |
| 20260902171543 | 61 | 211 | 8.0 | 20.0 | 0.00 | 0.00 | 0.00 | 56 | 1003.3 |
| 20260902171449 | 61 | 156 | 9.0 | 20.0 | 0.00 | 0.00 | 0.00 | 57 | 1003.3 |
| 20260902171345 | 61 | 161 | 8.0 | 20.0 | 0.00 | 0.00 | 0.00 | 57 | 1003.3 |
| 20260902171242 | 61 | 148 | 7.0 | 20.0 | 0.00 | 0.00 | 0.00 | 57 | 1003.3 |
| 20260902171150 | 61 | 200 | 7.0 | 20.0 | 0.00 | 0.00 | 0.00 | 57 | 1003.3 |
| 20260902171113 | 61 | 167 | 8.0 | 20.0 | 0.00 | 0.00 | 0.00 | 57 | 1003.2 |
| 20260902170949 | 61 | 167 | 9.0 | 20.0 | 0.00 | 0.00 | 0.00 | 57 | 1003.3 |
| 20260902170839 | 61 | 155 | 11.0 | 20.0 | 0.00 | 0.00 | 0.00 | 57 | 1003.3 |
| 20260902170756 | 61 | 182 | 10.0 | 20.0 | 0.00 | 0.00 | 0.00 | 57 | 1003.3 |
| 20260902170703 | 61 | 161 | 9.0 | 17.0 | 0.00 | 0.00 | 0.00 | 57 | 1003.3 |
| 20260902170536 | 61 | 188 | 8.0 | 17.0 | 0.00 | 0.00 | 0.00 | 57 | 1003.3 |
| 20260902170504 | 61 | 204 | 9.0 | 18.0 | 0.00 | 0.00 | 0.00 | 57 | 1003.3 |
| 20260902170409 | 61 | 115 | 10.0 | 18.0 | 0.00 | 0.00 | 0.00 | 57 | 1003.3 |
| 20260902170304 | 61 | 205 | 10.0 | 18.0 | 0.00 | 0.00 | 0.00 | 57 | 1003.3 |
| 20260902170150 | 61 | 190 | 9.0 | 18.0 | 0.00 | 0.00 | 0.00 | 57 | 1003.3 |
| 20260902170048 | 61 | 210 | 11.0 | 19.0 | 0.00 | 0.00 | 0.00 | 57 | 1003.3 |
| 20260902165954 | 61 | 174 | 9.0 | 18.0 | 0.00 | 0.00 | 0.00 | 57 | 1003.3 |
| 20260902165900 | 61 | 202 | 8.0 | 18.0 | 0.00 | 0.00 | 0.00 | 57 | 1003.3 |
| 20260902165737 | 61 | 164 | 6.0 | 18.0 | 0.00 | 0.00 | 0.00 | 57 | 1003.3 |
| 20260902165706 | 61 | 151 | 8.0 | 18.0 | 0.00 | 0.00 | 0.00 | 57 | 1003.3 |
| 20260902165538 | 61 | 146 | 9.0 | 18.0 | 0.00 | 0.00 | 0.00 | 57 | 1003.3 |
| 20260902165455 | 61 | 167 | 8.0 | 18.0 | 0.00 | 0.00 | 0.00 | 57 | 1003.2 |
| 20260902165349 | 61 | 144 | 7.0 | 17.0 | 0.00 | 0.00 | 0.00 | 58 | 1003.3 |
| 20260902165258 | 61 | 198 | 6.0 | 16.0 | 0.00 | 0.00 | 0.00 | 57 | 1003.3 |
| 20260902165138 | 61 | 198 | 8.0 | 16.0 | 0.00 | 0.00 | 0.00 | 58 | 1003.3 |
| 20260902165052 | 61 | 211 | 9.0 | 16.0 | 0.00 | 0.00 | 0.00 | 58 | 1003.3 |
| 20260902165018 | 61 | 187 | 10.0 | 16.0 | 0.00 | 0.00 | 0.00 | 58 | 1003.3 |
| 20260902164901 | 61 | 156 | 10.0 | 17.0 | 0.00 | 0.00 | 0.00 | 58 | 1003.3 |
| 20260902164754 | 61 | 194 | 9.0 | 17.0 | 0.00 | 0.00 | 0.00 | 58 | 1003.3 |
| 20260902164653 | 61 | 196 | 9.0 | 17.0 | 0.00 | 0.00 | 0.00 | 58 | 1003.3 |
| 20260902164541 | 61 | 157 | 9.0 | 20.0 | 0.00 | 0.00 | 0.00 | 58 | 1003.3 |
| 20260902164439 | 61 | 171 | 6.0 | 20.0 | 0.00 | 0.00 | 0.00 | 58 | 1003.4 |
| 20260902164404 | 61 | 175 | 6.0 | 20.0 | 0.00 | 0.00 | 0.00 | 58 | 1003.4 |
| 20260902164240 | 61 | 206 | 9.0 | 20.0 | 0.00 | 0.00 | 0.00 | 57 | 1003.3 |
| 20260902164139 | 61 | 179 | 9.0 | 20.0 | 0.00 | 0.00 | 0.00 | 57 | 1003.2 |
| 20260902164102 | 61 | 211 | 8.0 | 20.0 | 0.00 | 0.00 | 0.00 | 57 | 1003.2 |
| 20260902163951 | 61 | 202 | 8.0 | 20.0 | 0.00 | 0.00 | 0.00 | 57 | 1003.3 |
| 20260902163847 | 61 | 188 | 8.0 | 20.0 | 0.00 | 0.00 | 0.00 | 57 | 1003.2 |
| 20260902163744 | 61 | 201 | 9.0 | 20.0 | 0.00 | 0.00 | 0.00 | 57 | 1003.3 |
| 20260902163713 | 61 | 215 | 7.0 | 22.0 | 0.00 | 0.00 | 0.00 | 57 | 1003.3 |
| 20260902163553 | 61 | 167 | 6.0 | 15.0 | 0.00 | 0.00 | 0.00 | 57 | 1003.3 |
| 20260902163449 | 61 | 168 | 8.0 | 14.0 | 0.00 | 0.00 | 0.00 | 57 | 1003.3 |
| 20260902163346 | 61 | 187 | 11.0 | 14.0 | 0.00 | 0.00 | 0.00 | 57 | 1003.3 |
| 20260902163252 | 62 | 208 | 9.0 | 18.0 | 0.00 | 0.00 | 0.00 | 57 | 1003.3 |
| 20260902163204 | 62 | 151 | 9.0 | 18.0 | 0.00 | 0.00 | 0.00 | 57 | 1003.3 |
| 20260902163058 | 62 | 140 | 10.0 | 19.0 | 0.00 | 0.00 | 0.00 | 57 | 1003.3 |
| 20260902163024 | 62 | 168 | 10.0 | 19.0 | 0.00 | 0.00 | 0.00 | 57 | 1003.3 |
| 20260902162838 | 62 | 181 | 9.0 | 19.0 | 0.00 | 0.00 | 0.00 | 57 | 1003.3 |
| 20260902162746 | 62 | 140 | 8.0 | 19.0 | 0.00 | 0.00 | 0.00 | 57 | 1003.3 |
| 20260902162639 | 62 | 182 | 6.0 | 19.0 | 0.00 | 0.00 | 0.00 | 57 | 1003.3 |
| 20260902162607 | 62 | 168 | 6.0 | 19.0 | 0.00 | 0.00 | 0.00 | 57 | 1003.3 |
| 20260902162504 | 61 | 201 | 9.0 | 19.0 | 0.00 | 0.00 | 0.00 | 56 | 1003.4 |
| 20260902162348 | 61 | 177 | 9.0 | 19.0 | 0.00 | 0.00 | 0.00 | 56 | 1003.4 |
| 20260902162245 | 61 | 192 | 10.0 | 19.0 | 0.00 | 0.00 | 0.00 | 57 | 1003.4 |
| 20260902162213 | 61 | 218 | 10.0 | 18.0 | 0.00 | 0.00 | 0.00 | 57 | 1003.4 |
| 20260902162047 | 61 | 194 | 9.0 | 18.0 | 0.00 | 0.00 | 0.00 | 57 | 1003.4 |
| 20260902161951 | 61 | 185 | 10.0 | 18.0 | 0.00 | 0.00 | 0.00 | 56 | 1003.3 |
| 20260902161847 | 61 | 149 | 10.0 | 18.0 | 0.00 | 0.00 | 0.00 | 57 | 1003.4 |
| 20260902161737 | 61 | 172 | 9.0 | 18.0 | 0.00 | 0.00 | 0.00 | 57 | 1003.4 |
| 20260902161656 | 61 | 201 | 9.0 | 18.0 | 0.00 | 0.00 | 0.00 | 57 | 1003.3 |
| 20260902161600 | 61 | 181 | 10.0 | 18.0 | 0.00 | 0.00 | 0.00 | 57 | 1003.3 |
| 20260902161456 | 61 | 204 | 12.0 | 18.0 | 0.00 | 0.00 | 0.00 | 58 | 1003.3 |
| 20260902161401 | 61 | 144 | 11.0 | 18.0 | 0.00 | 0.00 | 0.00 | 58 | 1003.3 |
| 20260902161316 | 61 | 182 | 10.0 | 19.0 | 0.00 | 0.00 | 0.00 | 58 | 1003.4 |
| 20260902161202 | 61 | 181 | 10.0 | 19.0 | 0.00 | 0.00 | 0.00 | 59 | 1003.4 |
| 20260902161042 | 60 | 214 | 9.0 | 19.0 | 0.00 | 0.00 | 0.00 | 60 | 1003.3 |
| 20260902160938 | 60 | 165 | 7.0 | 17.0 | 0.00 | 0.00 | 0.00 | 61 | 1003.3 |
| 20260902160844 | 60 | 173 | 7.0 | 14.0 | 0.00 | 0.00 | 0.00 | 61 | 1003.4 |
| 20260902160739 | 60 | 199 | 7.0 | 14.0 | 0.00 | 0.00 | 0.00 | 62 | 1003.3 |
| 20260902160647 | 60 | 168 | 7.0 | 14.0 | 0.00 | 0.00 | 0.00 | 63 | 1003.3 |
| 20260902160543 | 60 | 210 | 8.0 | 14.0 | 0.00 | 0.00 | 0.00 | 63 | 1003.4 |
| 20260902160449 | 59 | 190 | 9.0 | 14.0 | 0.00 | 0.00 | 0.00 | 63 | 1003.4 |
| 20260902160350 | 59 | 178 | 8.0 | 14.0 | 0.00 | 0.00 | 0.00 | 64 | 1003.4 |
| 20260902160309 | 59 | 186 | 6.0 | 11.0 | 0.00 | 0.00 | 0.00 | 67 | 1003.4 |
| 20260902160224 | 59 | 177 | 6.0 | 9.0 | 0.00 | 0.00 | 0.00 | 67 | 1003.4 |
| 20260902160117 | 59 | 183 | 5.0 | 9.0 | 0.00 | 0.00 | 0.00 | 67 | 1003.4 |
| 20260902160002 | 59 | 219 | 2.0 | 6.0 | 0.00 | 0.00 | 0.00 | 68 | 1003.5 |
| 20260902155838 | 59 | 240 | 2.0 | 6.0 | 0.00 | 0.00 | 0.00 | 69 | 1003.4 |
| 20260902155803 | 58 | 240 | 3.0 | 6.0 | 0.00 | 0.00 | 0.00 | 68 | 1003.6 |
| 20260902155641 | 58 | 240 | 4.0 | 6.0 | 0.00 | 0.00 | 0.00 | 68 | 1003.6 |
| 20260902155604 | 58 | 241 | 4.0 | 6.0 | 0.00 | 0.00 | 0.00 | 68 | 1003.6 |
| 20260902155513 | 58 | 241 | 3.0 | 5.0 | 0.00 | 0.00 | 0.00 | 68 | 1003.6 |
| 20260902155417 | 58 | 251 | 3.0 | 7.0 | 0.00 | 0.00 | 0.00 | 68 | 1003.5 |
| 20260902155253 | 58 | 250 | 3.0 | 7.0 | 0.00 | 0.00 | 0.00 | 68 | 1003.6 |
| 20260902155159 | 58 | 250 | 2.0 | 7.0 | 0.00 | 0.00 | 0.00 | 68 | 1003.6 |
| 20260902155122 | 58 | 250 | 2.0 | 7.0 | 0.00 | 0.00 | 0.00 | 69 | 1003.6 |
| 20260902154938 | 58 | 250 | 2.0 | 7.0 | 0.00 | 0.00 | 0.00 | 69 | 1003.7 |
| 20260902154850 | 58 | 250 | 2.0 | 7.0 | 0.00 | 0.00 | 0.00 | 69 | 1003.7 |
| 20260902154816 | 58 | 250 | 3.0 | 7.0 | 0.00 | 0.00 | 0.00 | 69 | 1003.7 |
| 20260902154704 | 58 | 250 | 4.0 | 7.0 | 0.00 | 0.00 | 0.00 | 69 | 1003.7 |
| 20260902154540 | 58 | 250 | 4.0 | 7.0 | 0.00 | 0.00 | 0.00 | 70 | 1003.8 |
| 20260902154507 | 58 | 206 | 4.0 | 6.0 | 0.00 | 0.00 | 0.00 | 70 | 1003.8 |
| 20260902154343 | 57 | 206 | 4.0 | 7.0 | 0.00 | 0.00 | 0.00 | 71 | 1003.8 |
| 20260902154247 | 57 | 205 | 3.0 | 7.0 | 0.00 | 0.00 | 0.00 | 71 | 1003.7 |
| 20260902154147 | 57 | 200 | 3.0 | 7.0 | 0.00 | 0.00 | 0.00 | 71 | 1003.8 |
| 20260902154051 | 57 | 200 | 4.0 | 7.0 | 0.00 | 0.00 | 0.00 | 71 | 1003.8 |
| 20260902153948 | 57 | 200 | 3.0 | 7.0 | 0.00 | 0.00 | 0.00 | 72 | 1003.8 |
| 20260902153849 | 57 | 200 | 4.0 | 7.0 | 0.00 | 0.00 | 0.00 | 73 | 1003.8 |
| 20260902153755 | 57 | 200 | 4.0 | 7.0 | 0.00 | 0.00 | 0.00 | 73 | 1003.9 |
| 20260902153654 | 57 | 200 | 3.0 | 7.0 | 0.00 | 0.00 | 0.00 | 73 | 1003.8 |
| 20260902153558 | 56 | 197 | 5.0 | 7.0 | 0.00 | 0.00 | 0.00 | 74 | 1003.9 |
| 20260902153506 | 56 | 197 | 5.0 | 7.0 | 0.00 | 0.00 | 0.00 | 74 | 1003.9 |
| 20260902153343 | 56 | 195 | 4.0 | 7.0 | 0.00 | 0.00 | 0.00 | 74 | 1003.8 |
| 20260902153242 | 56 | 193 | 4.0 | 6.0 | 0.00 | 0.00 | 0.00 | 74 | 1004.0 |
| 20260902153140 | 56 | 192 | 4.0 | 6.0 | 0.00 | 0.00 | 0.00 | 74 | 1004.0 |
| 20260902153043 | 56 | 192 | 4.0 | 6.0 | 0.00 | 0.00 | 0.00 | 74 | 1004.0 |
| 20260902152942 | 56 | 192 | 3.0 | 6.0 | 0.00 | 0.00 | 0.00 | 75 | 1004.0 |
| 20260902152906 | 55 | 192 | 2.0 | 6.0 | 0.00 | 0.00 | 0.00 | 75 | 1004.0 |
| 20260902152741 | 55 | 190 | 2.0 | 6.0 | 0.00 | 0.00 | 0.00 | 74 | 1004.1 |
| 20260902152650 | 55 | 190 | 2.0 | 6.0 | 0.00 | 0.00 | 0.00 | 75 | 1004.0 |
| 20260902152548 | 55 | 190 | 3.0 | 6.0 | 0.00 | 0.00 | 0.00 | 75 | 1004.1 |
| 20260902152454 | 55 | 190 | 3.0 | 6.0 | 0.00 | 0.00 | 0.00 | 75 | 1004.1 |
| 20260902152350 | 55 | 192 | 2.0 | 6.0 | 0.00 | 0.00 | 0.00 | 76 | 1004.1 |
| 20260902152257 | 55 | 159 | 2.0 | 7.0 | 0.00 | 0.00 | 0.00 | 77 | 1004.1 |
| 20260902152156 | 55 | 159 | 3.0 | 7.0 | 0.00 | 0.00 | 0.00 | 76 | 1004.1 |
| 20260902152050 | 54 | 159 | 3.0 | 7.0 | 0.00 | 0.00 | 0.00 | 77 | 1004.1 |
| 20260902152016 | 54 | 159 | 3.0 | 7.0 | 0.00 | 0.00 | 0.00 | 77 | 1004.2 |
| 20260902151903 | 54 | 160 | 2.0 | 6.0 | 0.00 | 0.00 | 0.00 | 77 | 1004.2 |
| 20260902151739 | 54 | 160 | 1.0 | 6.0 | 0.00 | 0.00 | 0.00 | 78 | 1004.3 |
| 20260902151647 | 54 | 160 | 2.0 | 6.0 | 0.00 | 0.00 | 0.00 | 77 | 1004.2 |
| 20260902151541 | 54 | 160 | 2.0 | 6.0 | 0.00 | 0.00 | 0.00 | 78 | 1004.3 |
| 20260902151445 | 54 | 161 | 2.0 | 6.0 | 0.00 | 0.00 | 0.00 | 78 | 1004.3 |
| 20260902151342 | 54 | 161 | 2.0 | 6.0 | 0.00 | 0.00 | 0.00 | 78 | 1004.3 |
| 20260902151248 | 54 | 159 | 2.0 | 5.0 | 0.00 | 0.00 | 0.00 | 78 | 1004.3 |
| 20260902151153 | 54 | 157 | 3.0 | 7.0 | 0.00 | 0.00 | 0.00 | 78 | 1004.3 |
| 20260902151117 | 54 | 157 | 4.0 | 7.0 | 0.00 | 0.00 | 0.00 | 78 | 1004.3 |
| 20260902151022 | 53 | 157 | 4.0 | 7.0 | 0.00 | 0.00 | 0.00 | 79 | 1004.3 |
| 20260902150837 | 53 | 146 | 3.0 | 7.0 | 0.00 | 0.00 | 0.00 | 79 | 1004.3 |
| 20260902150754 | 53 | 127 | 2.0 | 7.0 | 0.00 | 0.00 | 0.00 | 79 | 1004.3 |
| 20260902150702 | 53 | 127 | 3.0 | 7.0 | 0.00 | 0.00 | 0.00 | 79 | 1004.3 |
| 20260902150537 | 53 | 127 | 3.0 | 7.0 | 0.00 | 0.00 | 0.00 | 79 | 1004.3 |
| 20260902150503 | 53 | 126 | 3.0 | 7.0 | 0.00 | 0.00 | 0.00 | 80 | 1004.3 |
| 20260902150403 | 53 | 125 | 3.0 | 7.0 | 0.00 | 0.00 | 0.00 | 80 | 1004.3 |
| 20260902150258 | 53 | 148 | 2.0 | 4.0 | 0.00 | 0.00 | 0.00 | 80 | 1004.4 |
| 20260902150144 | 53 | 148 | 1.0 | 4.0 | 0.00 | 0.00 | 0.00 | 80 | 1004.4 |
| 20260902150046 | 53 | 148 | 1.0 | 4.0 | 0.00 | 0.00 | 0.00 | 80 | 1004.4 |
| 20260902145943 | 53 | 148 | 1.0 | 4.0 | 0.00 | 0.00 | 0.00 | 80 | 1004.4 |
| 20260902145847 | 52 | 148 | 2.0 | 4.0 | 0.00 | 0.00 | 0.00 | 80 | 1004.4 |
| 20260902145744 | 52 | 148 | 2.0 | 4.0 | 0.00 | 0.00 | 0.00 | 80 | 1004.4 |
| 20260902145658 | 52 | 148 | 2.0 | 4.0 | 0.00 | 0.00 | 0.00 | 80 | 1004.4 |
| 20260902145553 | 52 | 148 | 1.0 | 4.0 | 0.00 | 0.00 | 0.00 | 80 | 1004.4 |
| 20260902145519 | 52 | 148 | 1.0 | 3.0 | 0.00 | 0.00 | 0.00 | 80 | 1004.4 |
| 20260902145351 | 52 | 148 | 1.0 | 3.0 | 0.00 | 0.00 | 0.00 | 80 | 1004.4 |
| 20260902145255 | 52 | 148 | 1.0 | 3.0 | 0.00 | 0.00 | 0.00 | 80 | 1004.4 |
| 20260902145154 | 52 | 148 | 1.0 | 3.0 | 0.00 | 0.00 | 0.00 | 80 | 1004.4 |
| 20260902145056 | 52 | 148 | 1.0 | 3.0 | 0.00 | 0.00 | 0.00 | 80 | 1004.4 |
| 20260902144940 | 52 | 148 | 0.0 | 2.0 | 0.00 | 0.00 | 0.00 | 80 | 1004.3 |
| 20260902144841 | 52 | 148 | 0.0 | 2.0 | 0.00 | 0.00 | 0.00 | 80 | 1004.4 |
| 20260902144738 | 52 | 148 | 1.0 | 2.0 | 0.00 | 0.00 | 0.00 | 80 | 1004.3 |
| 20260902144646 | 52 | 148 | 1.0 | 2.0 | 0.00 | 0.00 | 0.00 | 80 | 1004.4 |
| 20260902144540 | 52 | 148 | 0.0 | 1.0 | 0.00 | 0.00 | 0.00 | 80 | 1004.4 |
| 20260902144446 | 52 | 148 | 0.0 | 1.0 | 0.00 | 0.00 | 0.00 | 80 | 1004.4 |
| 20260902144343 | 52 | 148 | 0.0 | 1.0 | 0.00 | 0.00 | 0.00 | 80 | 1004.4 |
| 20260902144310 | 52 | 148 | 0.0 | 1.0 | 0.00 | 0.00 | 0.00 | 80 | 1004.5 |
| 20260902144152 | 52 | 148 | 0.0 | 0.0 | 0.00 | 0.00 | 0.00 | 80 | 1004.4 |
| 20260902144040 | 52 | 148 | 0.0 | 1.0 | 0.00 | 0.00 | 0.00 | 80 | 1004.5 |
| 20260902143956 | 52 | 148 | 0.0 | 2.0 | 0.00 | 0.00 | 0.00 | 80 | 1004.5 |
| 20260902143900 | 52 | 148 | 0.0 | 2.0 | 0.00 | 0.00 | 0.00 | 80 | 1004.5 |
| 20260902143736 | 52 | 148 | 0.0 | 2.0 | 0.00 | 0.00 | 0.00 | 80 | 1004.5 |
| 20260902143705 | 52 | 148 | 0.0 | 2.0 | 0.00 | 0.00 | 0.00 | 80 | 1004.5 |
| 20260902143543 | 52 | 148 | 0.0 | 2.0 | 0.00 | 0.00 | 0.00 | 80 | 1004.5 |
| 20260902143440 | 52 | 148 | 0.0 | 2.0 | 0.00 | 0.00 | 0.00 | 80 | 1004.5 |
| 20260902143404 | 52 | 148 | 0.0 | 2.0 | 0.00 | 0.00 | 0.00 | 80 | 1004.5 |
| 20260902143259 | 52 | 148 | 1.0 | 2.0 | 0.00 | 0.00 | 0.00 | 80 | 1004.5 |
| 20260902143145 | 52 | 148 | 1.0 | 2.0 | 0.00 | 0.00 | 0.00 | 80 | 1004.5 |
| 20260902143108 | 52 | 148 | 1.0 | 2.0 | 0.00 | 0.00 | 0.00 | 80 | 1004.6 |
| 20260902142944 | 52 | 148 | 1.0 | 2.0 | 0.00 | 0.00 | 0.00 | 80 | 1004.6 |
| 20260902142911 | 52 | 148 | 1.0 | 2.0 | 0.00 | 0.00 | 0.00 | 80 | 1004.6 |
| 20260902142756 | 52 | 148 | 1.0 | 2.0 | 0.00 | 0.00 | 0.00 | 79 | 1004.7 |
| 20260902142708 | 52 | 148 | 1.0 | 2.0 | 0.00 | 0.00 | 0.00 | 79 | 1004.7 |
| 20260902142543 | 52 | 148 | 1.0 | 2.0 | 0.00 | 0.00 | 0.00 | 79 | 1004.7 |
| 20260902142505 | 52 | 148 | 1.0 | 2.0 | 0.00 | 0.00 | 0.00 | 79 | 1004.7 |
| 20260902142338 | 52 | 148 | 1.0 | 2.0 | 0.00 | 0.00 | 0.00 | 79 | 1004.7 |
| 20260902142244 | 52 | 148 | 1.0 | 3.0 | 0.00 | 0.00 | 0.00 | 79 | 1004.6 |
| 20260902142203 | 52 | 148 | 1.0 | 3.0 | 0.00 | 0.00 | 0.00 | 79 | 1004.6 |
| 20260902142046 | 52 | 148 | 1.0 | 3.0 | 0.00 | 0.00 | 0.00 | 79 | 1004.7 |
| 20260902141941 | 52 | 148 | 1.0 | 3.0 | 0.00 | 0.00 | 0.00 | 80 | 1004.7 |
| 20260902141851 | 52 | 148 | 1.0 | 3.0 | 0.00 | 0.00 | 0.00 | 80 | 1004.7 |
| 20260902141748 | 52 | 148 | 1.0 | 3.0 | 0.00 | 0.00 | 0.00 | 80 | 1004.7 |
| 20260902141657 | 52 | 148 | 2.0 | 3.0 | 0.00 | 0.00 | 0.00 | 80 | 1004.7 |
| 20260902141601 | 52 | 148 | 2.0 | 3.0 | 0.00 | 0.00 | 0.00 | 80 | 1004.6 |
| 20260902141437 | 52 | 148 | 2.0 | 3.0 | 0.00 | 0.00 | 0.00 | 80 | 1004.7 |
| 20260902141355 | 52 | 148 | 1.0 | 3.0 | 0.00 | 0.00 | 0.00 | 80 | 1004.7 |
| 20260902141300 | 52 | 148 | 1.0 | 2.0 | 0.00 | 0.00 | 0.00 | 80 | 1004.7 |
| 20260902141147 | 52 | 148 | 1.0 | 2.0 | 0.00 | 0.00 | 0.00 | 80 | 1004.7 |
| 20260902141045 | 52 | 148 | 0.0 | 2.0 | 0.00 | 0.00 | 0.00 | 80 | 1004.7 |
| 20260902140950 | 52 | 148 | 0.0 | 2.0 | 0.00 | 0.00 | 0.00 | 80 | 1004.7 |
| 20260902140855 | 52 | 148 | 0.0 | 2.0 | 0.00 | 0.00 | 0.00 | 80 | 1004.7 |
| 20260902140752 | 52 | 148 | 1.0 | 2.0 | 0.00 | 0.00 | 0.00 | 80 | 1004.7 |
| 20260902140720 | 52 | 148 | 1.0 | 2.0 | 0.00 | 0.00 | 0.00 | 80 | 1004.7 |
| 20260902140555 | 52 | 148 | 0.0 | 3.0 | 0.00 | 0.00 | 0.00 | 80 | 1004.7 |
| 20260902140458 | 52 | 148 | 0.0 | 3.0 | 0.00 | 0.00 | 0.00 | 79 | 1004.7 |
| 20260902140339 | 52 | 148 | 0.0 | 3.0 | 0.00 | 0.00 | 0.00 | 79 | 1004.7 |
| 20260902140316 | 52 | 148 | 0.0 | 3.0 | 0.00 | 0.00 | 0.00 | 80 | 1004.6 |
| 20260902140140 | 52 | 148 | 0.0 | 3.0 | 0.00 | 0.00 | 0.00 | 80 | 1004.7 |
| 20260902140043 | 52 | 148 | 0.0 | 3.0 | 0.00 | 0.00 | 0.00 | 79 | 1004.7 |
| 20260902140010 | 52 | 148 | 1.0 | 4.0 | 0.00 | 0.00 | 0.00 | 80 | 1004.8 |
| 20260902135844 | 52 | 148 | 1.0 | 4.0 | 0.00 | 0.00 | 0.00 | 80 | 1004.8 |
| 20260902135746 | 52 | 148 | 1.0 | 4.0 | 0.00 | 0.00 | 0.00 | 80 | 1004.8 |
| 20260902135655 | 52 | 148 | 1.0 | 4.0 | 0.00 | 0.00 | 0.00 | 80 | 1004.8 |
| 20260902135550 | 52 | 148 | 1.0 | 4.0 | 0.00 | 0.00 | 0.00 | 80 | 1004.8 |
| 20260902135451 | 52 | 148 | 2.0 | 4.0 | 0.00 | 0.00 | 0.00 | 80 | 1004.9 |
| 20260902135337 | 52 | 148 | 2.0 | 4.0 | 0.00 | 0.00 | 0.00 | 80 | 1004.9 |
| 20260902135201 | 52 | 148 | 2.0 | 4.0 | 0.00 | 0.00 | 0.00 | 80 | 1004.9 |
| 20260902135055 | 52 | 148 | 2.0 | 4.0 | 0.00 | 0.00 | 0.00 | 80 | 1004.9 |
| 20260902134959 | 52 | 148 | 2.0 | 3.0 | 0.00 | 0.00 | 0.00 | 80 | 1004.9 |
| 20260902134852 | 52 | 148 | 2.0 | 4.0 | 0.00 | 0.00 | 0.00 | 80 | 1004.9 |
| 20260902134800 | 51 | 148 | 1.0 | 4.0 | 0.00 | 0.00 | 0.00 | 80 | 1004.9 |
| 20260902134659 | 52 | 148 | 1.0 | 4.0 | 0.00 | 0.00 | 0.00 | 80 | 1004.9 |
| 20260902134602 | 52 | 148 | 0.0 | 4.0 | 0.00 | 0.00 | 0.00 | 80 | 1004.8 |
| 20260902134439 | 52 | 148 | 1.0 | 4.0 | 0.00 | 0.00 | 0.00 | 80 | 1004.8 |
| 20260902134403 | 52 | 148 | 1.0 | 4.0 | 0.00 | 0.00 | 0.00 | 80 | 1004.8 |
| 20260902134240 | 51 | 148 | 2.0 | 4.0 | 0.00 | 0.00 | 0.00 | 80 | 1004.8 |
| 20260902134210 | 51 | 148 | 2.0 | 4.0 | 0.00 | 0.00 | 0.00 | 80 | 1004.7 |
| 20260902134046 | 51 | 148 | 3.0 | 4.0 | 0.00 | 0.00 | 0.00 | 80 | 1004.7 |
| 20260902133952 | 51 | 148 | 2.0 | 4.0 | 0.00 | 0.00 | 0.00 | 80 | 1004.7 |
| 20260902133918 | 51 | 148 | 2.0 | 4.0 | 0.00 | 0.00 | 0.00 | 80 | 1004.7 |
| 20260902133755 | 51 | 148 | 2.0 | 4.0 | 0.00 | 0.00 | 0.00 | 80 | 1004.7 |
| 20260902133652 | 51 | 148 | 2.0 | 4.0 | 0.00 | 0.00 | 0.00 | 80 | 1004.8 |
| 20260902133556 | 51 | 148 | 2.0 | 4.0 | 0.00 | 0.00 | 0.00 | 80 | 1004.7 |
| 20260902133524 | 51 | 148 | 2.0 | 4.0 | 0.00 | 0.00 | 0.00 | 80 | 1004.7 |
| 20260902133359 | 51 | 148 | 2.0 | 3.0 | 0.00 | 0.00 | 0.00 | 80 | 1004.7 |
| 20260902133239 | 51 | 148 | 1.0 | 3.0 | 0.00 | 0.00 | 0.00 | 80 | 1004.7 |
| 20260902133207 | 51 | 148 | 0.0 | 3.0 | 0.00 | 0.00 | 0.00 | 80 | 1004.7 |
| 20260902133040 | 51 | 148 | 1.0 | 3.0 | 0.00 | 0.00 | 0.00 | 80 | 1004.7 |
| 20260902132945 | 51 | 148 | 2.0 | 3.0 | 0.00 | 0.00 | 0.00 | 80 | 1004.7 |
| 20260902132912 | 51 | 148 | 1.0 | 3.0 | 0.00 | 0.00 | 0.00 | 80 | 1004.7 |
| 20260902132748 | 51 | 148 | 2.0 | 3.0 | 0.00 | 0.00 | 0.00 | 80 | 1004.6 |
| 20260902132657 | 51 | 148 | 2.0 | 3.0 | 0.00 | 0.00 | 0.00 | 80 | 1004.7 |
| 20260902132552 | 51 | 148 | 2.0 | 3.0 | 0.00 | 0.00 | 0.00 | 80 | 1004.7 |
| 20260902132452 | 51 | 148 | 1.0 | 3.0 | 0.00 | 0.00 | 0.00 | 80 | 1004.8 |
| 20260902132358 | 51 | 148 | 1.0 | 3.0 | 0.00 | 0.00 | 0.00 | 80 | 1004.8 |
| 20260902132306 | 51 | 148 | 1.0 | 3.0 | 0.00 | 0.00 | 0.00 | 80 | 1004.9 |
| 20260902132141 | 51 | 148 | 1.0 | 3.0 | 0.00 | 0.00 | 0.00 | 80 | 1004.9 |
| 20260902132036 | 51 | 148 | 1.0 | 3.0 | 0.00 | 0.00 | 0.00 | 80 | 1004.9 |
| 20260902132002 | 51 | 148 | 0.0 | 3.0 | 0.00 | 0.00 | 0.00 | 80 | 1004.9 |
| 20260902131842 | 51 | 148 | 1.0 | 3.0 | 0.00 | 0.00 | 0.00 | 80 | 1004.9 |
| 20260902131738 | 51 | 148 | 1.0 | 3.0 | 0.00 | 0.00 | 0.00 | 80 | 1004.9 |
| 20260902131645 | 51 | 148 | 2.0 | 3.0 | 0.00 | 0.00 | 0.00 | 80 | 1004.8 |
| 20260902131549 | 51 | 148 | 2.0 | 4.0 | 0.00 | 0.00 | 0.00 | 80 | 1004.8 |
| 20260902131445 | 51 | 148 | 1.0 | 4.0 | 0.00 | 0.00 | 0.00 | 80 | 1004.8 |
| 20260902131352 | 51 | 148 | 1.0 | 4.0 | 0.00 | 0.00 | 0.00 | 80 | 1004.8 |
| 20260902131248 | 51 | 148 | 1.0 | 4.0 | 0.00 | 0.00 | 0.00 | 80 | 1004.8 |
| 20260902131156 | 51 | 148 | 1.0 | 4.0 | 0.00 | 0.00 | 0.00 | 80 | 1004.8 |
| 20260902131055 | 51 | 148 | 1.0 | 4.0 | 0.00 | 0.00 | 0.00 | 80 | 1004.8 |
| 20260902131002 | 51 | 148 | 1.0 | 4.0 | 0.00 | 0.00 | 0.00 | 80 | 1004.8 |
| 20260902130837 | 51 | 148 | 1.0 | 4.0 | 0.00 | 0.00 | 0.00 | 79 | 1004.8 |
| 20260902130803 | 51 | 148 | 2.0 | 4.0 | 0.00 | 0.00 | 0.00 | 80 | 1004.8 |
| 20260902130642 | 51 | 148 | 2.0 | 4.0 | 0.00 | 0.00 | 0.00 | 80 | 1004.8 |
| 20260902130537 | 51 | 148 | 2.0 | 4.0 | 0.00 | 0.00 | 0.00 | 80 | 1004.9 |
| 20260902130503 | 51 | 148 | 2.0 | 5.0 | 0.00 | 0.00 | 0.00 | 80 | 1004.9 |
| 20260902130343 | 52 | 148 | 1.0 | 5.0 | 0.00 | 0.00 | 0.00 | 80 | 1004.9 |
| 20260902130301 | 52 | 148 | 2.0 | 5.0 | 0.00 | 0.00 | 0.00 | 80 | 1004.9 |
| 20260902130215 | 52 | 148 | 3.0 | 5.0 | 0.00 | 0.00 | 0.00 | 80 | 1004.9 |
| 20260902130109 | 52 | 148 | 3.0 | 5.0 | 0.00 | 0.00 | 0.00 | 79 | 1005.0 |
| 20260902130015 | 51 | 148 | 2.0 | 5.0 | 0.00 | 0.00 | 0.00 | 79 | 1005.0 |
| 20260902125900 | 52 | 148 | 2.0 | 5.0 | 0.00 | 0.00 | 0.00 | 80 | 1005.0 |
| 20260902125756 | 52 | 148 | 3.0 | 5.0 | 0.00 | 0.00 | 0.00 | 79 | 1005.0 |
| 20260902125705 | 52 | 148 | 3.0 | 5.0 | 0.00 | 0.00 | 0.00 | 79 | 1005.1 |
| 20260902125439 | 52 | 148 | 2.0 | 3.0 | 0.00 | 0.00 | 0.00 | 79 | 1005.1 |
| 20260902125346 | 52 | 148 | 2.0 | 3.0 | 0.00 | 0.00 | 0.00 | 79 | 1005.1 |
| 20260902125251 | 52 | 148 | 2.0 | 3.0 | 0.00 | 0.00 | 0.00 | 79 | 1005.1 |
| 20260902125150 | 52 | 148 | 1.0 | 3.0 | 0.00 | 0.00 | 0.00 | 79 | 1005.0 |
| 20260902125046 | 52 | 148 | 0.0 | 1.0 | 0.00 | 0.00 | 0.00 | 79 | 1005.0 |
| 20260902124951 | 52 | 148 | 0.0 | 1.0 | 0.00 | 0.00 | 0.00 | 79 | 1005.1 |
| 20260902124851 | 52 | 148 | 0.0 | 1.0 | 0.00 | 0.00 | 0.00 | 79 | 1005.1 |
| 20260902124756 | 52 | 148 | 0.0 | 1.0 | 0.00 | 0.00 | 0.00 | 79 | 1005.1 |
| 20260902124654 | 52 | 148 | 0.0 | 1.0 | 0.00 | 0.00 | 0.00 | 79 | 1005.2 |
| 20260902124557 | 52 | 148 | 0.0 | 1.0 | 0.00 | 0.00 | 0.00 | 78 | 1005.1 |
| 20260902124454 | 52 | 148 | 0.0 | 0.0 | 0.00 | 0.00 | 0.00 | 78 | 1005.1 |
| 20260902124420 | 52 | 148 | 0.0 | 0.0 | 0.00 | 0.00 | 0.00 | 78 | 1005.1 |
| 20260902124239 | 52 | 148 | 0.0 | 0.0 | 0.00 | 0.00 | 0.00 | 78 | 1005.1 |
| 20260902124139 | 52 | 148 | 0.0 | 0.0 | 0.00 | 0.00 | 0.00 | 78 | 1005.1 |
| 20260902124103 | 52 | 148 | 0.0 | 0.0 | 0.00 | 0.00 | 0.00 | 78 | 1005.1 |
| 20260902124008 | 52 | 148 | 0.0 | 0.0 | 0.00 | 0.00 | 0.00 | 78 | 1005.1 |
| 20260902123843 | 52 | 148 | 0.0 | 0.0 | 0.00 | 0.00 | 0.00 | 78 | 1005.1 |
| 20260902123747 | 52 | 148 | 0.0 | 0.0 | 0.00 | 0.00 | 0.00 | 78 | 1005.1 |
| 20260902123646 | 52 | 148 | 0.0 | 1.0 | 0.00 | 0.00 | 0.00 | 78 | 1005.2 |
| 20260902123549 | 52 | 148 | 0.0 | 1.0 | 0.00 | 0.00 | 0.00 | 78 | 1005.1 |
| 20260902123452 | 52 | 148 | 0.0 | 1.0 | 0.00 | 0.00 | 0.00 | 78 | 1005.1 |
| 20260902123348 | 52 | 148 | 0.0 | 1.0 | 0.00 | 0.00 | 0.00 | 78 | 1005.1 |
| 20260902123254 | 52 | 148 | 0.0 | 1.0 | 0.00 | 0.00 | 0.00 | 78 | 1005.2 |
| 20260902123151 | 52 | 148 | 0.0 | 1.0 | 0.00 | 0.00 | 0.00 | 78 | 1005.2 |
| 20260902123054 | 52 | 148 | 0.0 | 2.0 | 0.00 | 0.00 | 0.00 | 79 | 1005.2 |
| 20260902122951 | 52 | 148 | 0.0 | 2.0 | 0.00 | 0.00 | 0.00 | 78 | 1005.2 |
| 20260902122901 | 52 | 148 | 0.0 | 2.0 | 0.00 | 0.00 | 0.00 | 78 | 1005.2 |
| 20260902122738 | 52 | 148 | 0.0 | 3.0 | 0.00 | 0.00 | 0.00 | 79 | 1005.2 |
| 20260902122657 | 52 | 148 | 0.0 | 4.0 | 0.00 | 0.00 | 0.00 | 79 | 1005.2 |
| 20260902122602 | 52 | 148 | 0.0 | 4.0 | 0.00 | 0.00 | 0.00 | 79 | 1005.3 |
| 20260902122439 | 52 | 148 | 0.0 | 4.0 | 0.00 | 0.00 | 0.00 | 79 | 1005.2 |
| 20260902122401 | 52 | 148 | 0.0 | 4.0 | 0.00 | 0.00 | 0.00 | 79 | 1005.2 |
| 20260902122242 | 52 | 148 | 1.0 | 5.0 | 0.00 | 0.00 | 0.00 | 79 | 1005.3 |
| 20260902122201 | 52 | 148 | 1.0 | 5.0 | 0.00 | 0.00 | 0.00 | 79 | 1005.3 |
| 20260902122044 | 52 | 148 | 2.0 | 5.0 | 0.00 | 0.00 | 0.00 | 79 | 1005.2 |
| 20260902121941 | 52 | 148 | 2.0 | 5.0 | 0.00 | 0.00 | 0.00 | 79 | 1005.2 |
| 20260902121846 | 52 | 148 | 2.0 | 7.0 | 0.00 | 0.00 | 0.00 | 79 | 1005.3 |
| 20260902121743 | 52 | 148 | 3.0 | 7.0 | 0.00 | 0.00 | 0.00 | 79 | 1005.3 |
| 20260902121651 | 52 | 148 | 2.0 | 7.0 | 0.00 | 0.00 | 0.00 | 79 | 1005.3 |
| 20260902121546 | 52 | 148 | 3.0 | 7.0 | 0.00 | 0.00 | 0.00 | 79 | 1005.2 |
| 20260902121454 | 52 | 148 | 4.0 | 7.0 | 0.00 | 0.00 | 0.00 | 79 | 1005.3 |
| 20260902121400 | 52 | 148 | 4.0 | 8.0 | 0.00 | 0.00 | 0.00 | 79 | 1005.2 |
| 20260902121324 | 52 | 147 | 3.0 | 8.0 | 0.00 | 0.00 | 0.00 | 79 | 1005.3 |
| 20260902121143 | 52 | 147 | 3.0 | 8.0 | 0.00 | 0.00 | 0.00 | 79 | 1005.3 |
| 20260902121038 | 52 | 147 | 3.0 | 8.0 | 0.00 | 0.00 | 0.00 | 79 | 1005.3 |
| 20260902120943 | 52 | 147 | 3.0 | 8.0 | 0.00 | 0.00 | 0.00 | 79 | 1005.3 |
| 20260902120839 | 52 | 147 | 3.0 | 8.0 | 0.00 | 0.00 | 0.00 | 79 | 1005.3 |
| 20260902120805 | 52 | 147 | 4.0 | 9.0 | 0.00 | 0.00 | 0.00 | 79 | 1005.3 |
| 20260902120658 | 52 | 147 | 4.0 | 9.0 | 0.00 | 0.00 | 0.00 | 79 | 1005.2 |
| 20260902120550 | 52 | 147 | 4.0 | 9.0 | 0.00 | 0.00 | 0.00 | 79 | 1005.2 |
| 20260902120515 | 52 | 147 | 4.0 | 9.0 | 0.00 | 0.00 | 0.00 | 79 | 1005.3 |
| 20260902120349 | 52 | 147 | 4.0 | 9.0 | 0.00 | 0.00 | 0.00 | 79 | 1005.3 |
| 20260902120307 | 52 | 147 | 4.0 | 9.0 | 0.00 | 0.00 | 0.00 | 79 | 1005.3 |
| 20260902120154 | 52 | 148 | 4.0 | 9.0 | 0.00 | 0.00 | 0.00 | 79 | 1005.3 |
| 20260902120059 | 52 | 148 | 6.0 | 9.0 | 0.00 | 0.00 | 0.00 | 79 | 1005.3 |
| 20260902115940 | 52 | 148 | 5.0 | 9.0 | 0.00 | 0.00 | 0.00 | 79 | 1005.3 |
| 20260902115837 | 52 | 148 | 5.0 | 9.0 | 0.00 | 0.00 | 0.00 | 79 | 1005.4 |
| 20260902115743 | 52 | 148 | 5.0 | 9.0 | 0.00 | 0.00 | 0.00 | 79 | 1005.4 |
| 20260902115642 | 52 | 157 | 6.0 | 9.0 | 0.00 | 0.00 | 0.00 | 79 | 1005.5 |
| 20260902115545 | 52 | 158 | 5.0 | 9.0 | 0.00 | 0.00 | 0.00 | 79 | 1005.5 |
| 20260902115503 | 52 | 160 | 4.0 | 9.0 | 0.00 | 0.00 | 0.00 | 78 | 1005.5 |
| 20260902115347 | 52 | 161 | 5.0 | 9.0 | 0.00 | 0.00 | 0.00 | 78 | 1005.5 |
| 20260902115312 | 52 | 163 | 5.0 | 9.0 | 0.00 | 0.00 | 0.00 | 78 | 1005.6 |
| 20260902115153 | 52 | 164 | 4.0 | 9.0 | 0.00 | 0.00 | 0.00 | 78 | 1005.6 |
| 20260902115038 | 52 | 180 | 4.0 | 8.0 | 0.00 | 0.00 | 0.00 | 78 | 1005.7 |
| 20260902114953 | 52 | 180 | 4.0 | 9.0 | 0.00 | 0.00 | 0.00 | 78 | 1005.6 |
| 20260902114859 | 52 | 155 | 4.0 | 9.0 | 0.00 | 0.00 | 0.00 | 78 | 1005.6 |
| 20260902114756 | 52 | 155 | 5.0 | 9.0 | 0.00 | 0.00 | 0.00 | 78 | 1005.6 |
| 20260902114703 | 52 | 155 | 5.0 | 9.0 | 0.00 | 0.00 | 0.00 | 77 | 1005.6 |
| 20260902114543 | 52 | 158 | 5.0 | 9.0 | 0.00 | 0.00 | 0.00 | 77 | 1005.6 |
| 20260902114440 | 52 | 158 | 6.0 | 9.0 | 0.00 | 0.00 | 0.00 | 77 | 1005.5 |
| 20260902114347 | 52 | 158 | 6.0 | 9.0 | 0.00 | 0.00 | 0.00 | 77 | 1005.5 |
| 20260902114303 | 52 | 173 | 5.0 | 9.0 | 0.00 | 0.00 | 0.00 | 77 | 1005.5 |
| 20260902114211 | 52 | 181 | 5.0 | 9.0 | 0.00 | 0.00 | 0.00 | 77 | 1005.5 |
| 20260902114113 | 52 | 144 | 4.0 | 7.0 | 0.00 | 0.00 | 0.00 | 77 | 1005.5 |
| 20260902113957 | 52 | 144 | 4.0 | 7.0 | 0.00 | 0.00 | 0.00 | 76 | 1005.5 |
| 20260902113854 | 52 | 143 | 4.0 | 7.0 | 0.00 | 0.00 | 0.00 | 76 | 1005.5 |
| 20260902113820 | 52 | 143 | 3.0 | 7.0 | 0.00 | 0.00 | 0.00 | 76 | 1005.5 |
| 20260902113641 | 52 | 143 | 3.0 | 7.0 | 0.00 | 0.00 | 0.00 | 76 | 1005.5 |
| 20260902113547 | 53 | 142 | 3.0 | 7.0 | 0.00 | 0.00 | 0.00 | 76 | 1005.4 |
| 20260902113442 | 53 | 143 | 4.0 | 7.0 | 0.00 | 0.00 | 0.00 | 76 | 1005.5 |
| 20260902113408 | 53 | 142 | 3.0 | 5.0 | 0.00 | 0.00 | 0.00 | 76 | 1005.4 |
| 20260902113314 | 53 | 142 | 3.0 | 5.0 | 0.00 | 0.00 | 0.00 | 76 | 1005.5 |
| 20260902113152 | 53 | 141 | 3.0 | 5.0 | 0.00 | 0.00 | 0.00 | 75 | 1005.4 |
| 20260902113056 | 53 | 140 | 3.0 | 5.0 | 0.00 | 0.00 | 0.00 | 75 | 1005.3 |
| 20260902112953 | 53 | 140 | 3.0 | 5.0 | 0.00 | 0.00 | 0.00 | 75 | 1005.4 |
| 20260902112903 | 53 | 140 | 3.0 | 5.0 | 0.00 | 0.00 | 0.00 | 75 | 1005.3 |
| 20260902112740 | 53 | 139 | 4.0 | 5.0 | 0.00 | 0.00 | 0.00 | 75 | 1005.4 |
| 20260902112639 | 53 | 139 | 3.0 | 5.0 | 0.00 | 0.00 | 0.00 | 75 | 1005.3 |
| 20260902112544 | 53 | 139 | 2.0 | 5.0 | 0.00 | 0.00 | 0.00 | 75 | 1005.3 |
| 20260902112440 | 53 | 139 | 2.0 | 5.0 | 0.00 | 0.00 | 0.00 | 75 | 1005.4 |
| 20260902112337 | 53 | 138 | 2.0 | 5.0 | 0.00 | 0.00 | 0.00 | 75 | 1005.4 |
| 20260902112245 | 53 | 138 | 2.0 | 5.0 | 0.00 | 0.00 | 0.00 | 75 | 1005.4 |
| 20260902112146 | 53 | 138 | 2.0 | 5.0 | 0.00 | 0.00 | 0.00 | 75 | 1005.4 |
| 20260902112051 | 53 | 138 | 2.0 | 5.0 | 0.00 | 0.00 | 0.00 | 75 | 1005.5 |
| 20260902112006 | 53 | 138 | 3.0 | 7.0 | 0.00 | 0.00 | 0.00 | 75 | 1005.5 |
| 20260902111851 | 53 | 138 | 3.0 | 7.0 | 0.00 | 0.00 | 0.00 | 75 | 1005.4 |
| 20260902111748 | 53 | 138 | 2.0 | 7.0 | 0.00 | 0.00 | 0.00 | 75 | 1005.4 |
| 20260902111657 | 53 | 138 | 3.0 | 8.0 | 0.00 | 0.00 | 0.00 | 75 | 1005.4 |
| 20260902111554 | 53 | 138 | 3.0 | 8.0 | 0.00 | 0.00 | 0.00 | 75 | 1005.4 |
| 20260902111500 | 53 | 138 | 3.0 | 8.0 | 0.00 | 0.00 | 0.00 | 75 | 1005.4 |
| 20260902111415 | 53 | 138 | 3.0 | 8.0 | 0.00 | 0.00 | 0.00 | 75 | 1005.4 |
| 20260902111259 | 53 | 138 | 3.0 | 9.0 | 0.00 | 0.00 | 0.00 | 75 | 1005.5 |
| 20260902111207 | 53 | 138 | 3.0 | 9.0 | 0.00 | 0.00 | 0.00 | 74 | 1005.5 |
| 20260902111040 | 53 | 138 | 3.0 | 9.0 | 0.00 | 0.00 | 0.00 | 74 | 1005.5 |
| 20260902111006 | 54 | 138 | 4.0 | 9.0 | 0.00 | 0.00 | 0.00 | 74 | 1005.5 |
| 20260902110842 | 54 | 138 | 4.0 | 9.0 | 0.00 | 0.00 | 0.00 | 74 | 1005.6 |
| 20260902110752 | 54 | 138 | 4.0 | 9.0 | 0.00 | 0.00 | 0.00 | 74 | 1005.5 |
| 20260902110650 | 54 | 138 | 4.0 | 9.0 | 0.00 | 0.00 | 0.00 | 74 | 1005.6 |
| 20260902110555 | 54 | 138 | 5.0 | 9.0 | 0.00 | 0.00 | 0.00 | 74 | 1005.6 |
| 20260902110451 | 54 | 138 | 5.0 | 9.0 | 0.00 | 0.00 | 0.00 | 73 | 1005.6 |
| 20260902110348 | 54 | 143 | 4.0 | 9.0 | 0.00 | 0.00 | 0.00 | 73 | 1005.6 |
| 20260902110306 | 54 | 144 | 3.0 | 9.0 | 0.00 | 0.00 | 0.00 | 73 | 1005.6 |
| 20260902110148 | 54 | 144 | 4.0 | 9.0 | 0.00 | 0.00 | 0.00 | 73 | 1005.6 |
| 20260902110057 | 54 | 144 | 4.0 | 9.0 | 0.00 | 0.00 | 0.00 | 73 | 1005.6 |
| 20260902105954 | 54 | 144 | 6.0 | 9.0 | 0.00 | 0.00 | 0.00 | 73 | 1005.6 |
| 20260902105918 | 54 | 144 | 6.0 | 9.0 | 0.00 | 0.00 | 0.00 | 73 | 1005.6 |
| 20260902105844 | 54 | 121 | 5.0 | 9.0 | 0.00 | 0.00 | 0.00 | 73 | 1005.6 |
| 20260902105558 | 54 | 145 | 5.0 | 8.0 | 0.00 | 0.00 | 0.00 | 72 | 1005.6 |
| 20260902105455 | 55 | 141 | 5.0 | 8.0 | 0.00 | 0.00 | 0.00 | 72 | 1005.7 |
| 20260902105341 | 55 | 146 | 5.0 | 8.0 | 0.00 | 0.00 | 0.00 | 72 | 1005.7 |
| 20260902105240 | 55 | 146 | 5.0 | 8.0 | 0.00 | 0.00 | 0.00 | 72 | 1005.7 |
| 20260902105148 | 55 | 147 | 5.0 | 8.0 | 0.00 | 0.00 | 0.00 | 72 | 1005.7 |
| 20260902105042 | 55 | 139 | 5.0 | 8.0 | 0.00 | 0.00 | 0.00 | 72 | 1005.7 |
| 20260902105008 | 55 | 139 | 4.0 | 8.0 | 0.00 | 0.00 | 0.00 | 72 | 1005.7 |
| 20260902104844 | 55 | 139 | 3.0 | 8.0 | 0.00 | 0.00 | 0.00 | 72 | 1005.7 |
| 20260902104810 | 55 | 139 | 4.0 | 8.0 | 0.00 | 0.00 | 0.00 | 72 | 1005.7 |
| 20260902104717 | 55 | 139 | 4.0 | 8.0 | 0.00 | 0.00 | 0.00 | 72 | 1005.6 |
| 20260902104551 | 55 | 140 | 4.0 | 8.0 | 0.00 | 0.00 | 0.00 | 72 | 1005.7 |
| 20260902104501 | 55 | 140 | 4.0 | 8.0 | 0.00 | 0.00 | 0.00 | 72 | 1005.6 |
| 20260902104358 | 55 | 154 | 4.0 | 7.0 | 0.00 | 0.00 | 0.00 | 72 | 1005.7 |
| 20260902104324 | 55 | 184 | 4.0 | 5.0 | 0.00 | 0.00 | 0.00 | 72 | 1005.6 |
| 20260902104201 | 55 | 184 | 3.0 | 5.0 | 0.00 | 0.00 | 0.00 | 72 | 1005.6 |
| 20260902104043 | 55 | 184 | 3.0 | 5.0 | 0.00 | 0.00 | 0.00 | 72 | 1005.6 |
| 20260902103939 | 55 | 184 | 3.0 | 5.0 | 0.00 | 0.00 | 0.00 | 73 | 1005.6 |
| 20260902103836 | 55 | 184 | 3.0 | 6.0 | 0.00 | 0.00 | 0.00 | 73 | 1005.6 |
| 20260902103745 | 55 | 184 | 2.0 | 6.0 | 0.00 | 0.00 | 0.00 | 73 | 1005.7 |
| 20260902103713 | 55 | 184 | 1.0 | 6.0 | 0.00 | 0.00 | 0.00 | 73 | 1005.6 |
| 20260902103548 | 55 | 184 | 3.0 | 6.0 | 0.00 | 0.00 | 0.00 | 73 | 1005.7 |
| 20260902103441 | 55 | 184 | 4.0 | 6.0 | 0.00 | 0.00 | 0.00 | 73 | 1005.6 |
| 20260902103408 | 55 | 186 | 3.0 | 6.0 | 0.00 | 0.00 | 0.00 | 73 | 1005.7 |
| 20260902103252 | 55 | 189 | 3.0 | 6.0 | 0.00 | 0.00 | 0.00 | 73 | 1005.7 |
| 20260902103210 | 55 | 189 | 4.0 | 6.0 | 0.00 | 0.00 | 0.00 | 73 | 1005.6 |
| 20260902103038 | 55 | 190 | 4.0 | 6.0 | 0.00 | 0.00 | 0.00 | 73 | 1005.6 |
| 20260902102953 | 55 | 173 | 3.0 | 7.0 | 0.00 | 0.00 | 0.00 | 73 | 1005.6 |
| 20260902102837 | 55 | 173 | 4.0 | 8.0 | 0.00 | 0.00 | 0.00 | 73 | 1005.7 |
| 20260902102754 | 55 | 173 | 4.0 | 8.0 | 0.00 | 0.00 | 0.00 | 73 | 1005.6 |
| 20260902102643 | 55 | 153 | 3.0 | 8.0 | 0.00 | 0.00 | 0.00 | 73 | 1005.6 |
| 20260902102538 | 55 | 153 | 4.0 | 8.0 | 0.00 | 0.00 | 0.00 | 73 | 1005.6 |
| 20260902102504 | 55 | 153 | 4.0 | 8.0 | 0.00 | 0.00 | 0.00 | 73 | 1005.6 |
| 20260902102345 | 55 | 153 | 3.0 | 8.0 | 0.00 | 0.00 | 0.00 | 74 | 1005.6 |
| 20260902102242 | 55 | 154 | 4.0 | 8.0 | 0.00 | 0.00 | 0.00 | 74 | 1005.6 |
| 20260902102150 | 55 | 154 | 4.0 | 8.0 | 0.00 | 0.00 | 0.00 | 74 | 1005.6 |
| 20260902102044 | 55 | 155 | 3.0 | 6.0 | 0.00 | 0.00 | 0.00 | 74 | 1005.6 |
| 20260902101951 | 55 | 204 | 3.0 | 6.0 | 0.00 | 0.00 | 0.00 | 74 | 1005.7 |
| 20260902101847 | 55 | 205 | 3.0 | 6.0 | 0.00 | 0.00 | 0.00 | 74 | 1005.7 |
| 20260902101742 | 55 | 205 | 3.0 | 6.0 | 0.00 | 0.00 | 0.00 | 74 | 1005.6 |
| 20260902101715 | 55 | 205 | 3.0 | 6.0 | 0.00 | 0.00 | 0.00 | 74 | 1005.7 |
| 20260902101558 | 55 | 205 | 3.0 | 6.0 | 0.00 | 0.00 | 0.00 | 74 | 1005.6 |
| 20260902101454 | 55 | 206 | 3.0 | 6.0 | 0.00 | 0.00 | 0.00 | 74 | 1005.6 |
| 20260902101351 | 55 | 207 | 2.0 | 7.0 | 0.00 | 0.00 | 0.00 | 74 | 1005.6 |
| 20260902101256 | 55 | 207 | 2.0 | 8.0 | 0.00 | 0.00 | 0.00 | 74 | 1005.6 |
| 20260902101155 | 55 | 207 | 2.0 | 9.0 | 0.00 | 0.00 | 0.00 | 74 | 1005.6 |
| 20260902101058 | 55 | 207 | 1.0 | 9.0 | 0.00 | 0.00 | 0.00 | 74 | 1005.6 |
| 20260902100937 | 55 | 207 | 1.0 | 9.0 | 0.00 | 0.00 | 0.00 | 74 | 1005.6 |
| 20260902100902 | 55 | 207 | 1.0 | 9.0 | 0.00 | 0.00 | 0.00 | 75 | 1005.6 |
| 20260902100827 | 55 | 207 | 2.0 | 9.0 | 0.00 | 0.00 | 0.00 | 74 | 1005.6 |
| 20260902100640 | 55 | 207 | 4.0 | 9.0 | 0.00 | 0.00 | 0.00 | 75 | 1005.7 |
| 20260902100536 | 55 | 207 | 5.0 | 9.0 | 0.00 | 0.00 | 0.00 | 75 | 1005.6 |
| 20260902100439 | 55 | 204 | 6.0 | 9.0 | 0.00 | 0.00 | 0.00 | 75 | 1005.6 |
| 20260902100357 | 55 | 206 | 6.0 | 9.0 | 0.00 | 0.00 | 0.00 | 75 | 1005.7 |
| 20260902100318 | 55 | 213 | 5.0 | 8.0 | 0.00 | 0.00 | 0.00 | 75 | 1005.7 |
| 20260902100212 | 55 | 231 | 5.0 | 8.0 | 0.00 | 0.00 | 0.00 | 75 | 1005.6 |
| 20260902100046 | 55 | 231 | 4.0 | 8.0 | 0.00 | 0.00 | 0.00 | 75 | 1005.7 |
| 20260902095953 | 54 | 258 | 2.0 | 7.0 | 0.00 | 0.00 | 0.00 | 75 | 1005.6 |
| 20260902095848 | 54 | 258 | 3.0 | 7.0 | 0.00 | 0.00 | 0.00 | 75 | 1005.6 |
| 20260902095814 | 54 | 258 | 4.0 | 7.0 | 0.00 | 0.00 | 0.00 | 75 | 1005.6 |
| 20260902095653 | 54 | 217 | 3.0 | 6.0 | 0.00 | 0.00 | 0.00 | 75 | 1005.6 |
| 20260902095557 | 54 | 217 | 3.0 | 6.0 | 0.00 | 0.00 | 0.00 | 75 | 1005.5 |
| 20260902095438 | 54 | 217 | 4.0 | 6.0 | 0.00 | 0.00 | 0.00 | 75 | 1005.5 |
| 20260902095404 | 54 | 217 | 4.0 | 6.0 | 0.00 | 0.00 | 0.00 | 75 | 1005.5 |
| 20260902095241 | 54 | 216 | 3.0 | 5.0 | 0.00 | 0.00 | 0.00 | 75 | 1005.5 |
| 20260902095200 | 54 | 217 | 3.0 | 5.0 | 0.00 | 0.00 | 0.00 | 75 | 1005.5 |
| 20260902095042 | 54 | 217 | 3.0 | 5.0 | 0.00 | 0.00 | 0.00 | 75 | 1005.5 |
| 20260902094938 | 54 | 217 | 2.0 | 5.0 | 0.00 | 0.00 | 0.00 | 75 | 1005.5 |
| 20260902094844 | 54 | 217 | 2.0 | 5.0 | 0.00 | 0.00 | 0.00 | 75 | 1005.5 |
| 20260902094742 | 54 | 217 | 3.0 | 5.0 | 0.00 | 0.00 | 0.00 | 75 | 1005.5 |
| 20260902094650 | 54 | 217 | 3.0 | 5.0 | 0.00 | 0.00 | 0.00 | 75 | 1005.5 |
| 20260902094545 | 54 | 217 | 3.0 | 5.0 | 0.00 | 0.00 | 0.00 | 74 | 1005.5 |
| 20260902094511 | 54 | 217 | 3.0 | 7.0 | 0.00 | 0.00 | 0.00 | 74 | 1005.5 |
| 20260902094346 | 54 | 217 | 3.0 | 7.0 | 0.00 | 0.00 | 0.00 | 74 | 1005.5 |
| 20260902094252 | 54 | 217 | 3.0 | 7.0 | 0.00 | 0.00 | 0.00 | 74 | 1005.5 |
| 20260902094151 | 54 | 217 | 3.0 | 7.0 | 0.00 | 0.00 | 0.00 | 74 | 1005.5 |
| 20260902094059 | 54 | 217 | 3.0 | 7.0 | 0.00 | 0.00 | 0.00 | 74 | 1005.5 |
| 20260902093955 | 54 | 217 | 3.0 | 7.0 | 0.00 | 0.00 | 0.00 | 74 | 1005.5 |
| 20260902093901 | 54 | 217 | 3.0 | 7.0 | 0.00 | 0.00 | 0.00 | 74 | 1005.5 |
| 20260902093758 | 54 | 217 | 4.0 | 9.0 | 0.00 | 0.00 | 0.00 | 74 | 1005.6 |
| 20260902093705 | 54 | 217 | 4.0 | 9.0 | 0.00 | 0.00 | 0.00 | 74 | 1005.6 |
| 20260902093541 | 54 | 217 | 3.0 | 9.0 | 0.00 | 0.00 | 0.00 | 74 | 1005.5 |
| 20260902093441 | 54 | 216 | 3.0 | 9.0 | 0.00 | 0.00 | 0.00 | 74 | 1005.6 |
| 20260902093346 | 54 | 216 | 5.0 | 9.0 | 0.00 | 0.00 | 0.00 | 74 | 1005.6 |
| 20260902093243 | 54 | 216 | 6.0 | 9.0 | 0.00 | 0.00 | 0.00 | 74 | 1005.6 |
| 20260902093143 | 55 | 198 | 6.0 | 9.0 | 0.00 | 0.00 | 0.00 | 74 | 1005.6 |
| 20260902093046 | 55 | 206 | 5.0 | 9.0 | 0.00 | 0.00 | 0.00 | 74 | 1005.6 |
| 20260902092952 | 55 | 217 | 4.0 | 8.0 | 0.00 | 0.00 | 0.00 | 74 | 1005.6 |
| 20260902092905 | 55 | 217 | 3.0 | 8.0 | 0.00 | 0.00 | 0.00 | 74 | 1005.6 |
| 20260902092744 | 55 | 217 | 3.0 | 8.0 | 0.00 | 0.00 | 0.00 | 74 | 1005.7 |
| 20260902092643 | 55 | 217 | 4.0 | 8.0 | 0.00 | 0.00 | 0.00 | 74 | 1005.7 |
| 20260902092608 | 55 | 217 | 5.0 | 8.0 | 0.00 | 0.00 | 0.00 | 74 | 1005.7 |
| 20260902092442 | 55 | 217 | 4.0 | 8.0 | 0.00 | 0.00 | 0.00 | 74 | 1005.7 |
| 20260902092348 | 55 | 217 | 4.0 | 8.0 | 0.00 | 0.00 | 0.00 | 74 | 1005.7 |
| 20260902092244 | 55 | 217 | 4.0 | 8.0 | 0.00 | 0.00 | 0.00 | 74 | 1005.8 |
| 20260902092211 | 55 | 217 | 4.0 | 8.0 | 0.00 | 0.00 | 0.00 | 74 | 1005.8 |
| 20260902092115 | 55 | 217 | 3.0 | 8.0 | 0.00 | 0.00 | 0.00 | 74 | 1005.9 |
| 20260902091950 | 55 | 217 | 3.0 | 8.0 | 0.00 | 0.00 | 0.00 | 74 | 1005.9 |
| 20260902091840 | 55 | 217 | 4.0 | 8.0 | 0.00 | 0.00 | 0.00 | 74 | 1005.9 |
| 20260902091736 | 55 | 216 | 4.0 | 8.0 | 0.00 | 0.00 | 0.00 | 74 | 1005.9 |
| 20260902091705 | 55 | 215 | 5.0 | 8.0 | 0.00 | 0.00 | 0.00 | 74 | 1005.9 |
| 20260902091540 | 55 | 215 | 4.0 | 8.0 | 0.00 | 0.00 | 0.00 | 74 | 1005.9 |
| 20260902091456 | 55 | 223 | 4.0 | 5.0 | 0.00 | 0.00 | 0.00 | 74 | 1005.9 |
| 20260902091341 | 55 | 223 | 4.0 | 5.0 | 0.00 | 0.00 | 0.00 | 74 | 1005.9 |
| 20260902091242 | 55 | 223 | 3.0 | 5.0 | 0.00 | 0.00 | 0.00 | 74 | 1005.9 |
| 20260902091141 | 55 | 223 | 3.0 | 5.0 | 0.00 | 0.00 | 0.00 | 74 | 1006.0 |
| 20260902091045 | 55 | 223 | 3.0 | 5.0 | 0.00 | 0.00 | 0.00 | 74 | 1005.9 |
| 20260902090941 | 55 | 223 | 3.0 | 5.0 | 0.00 | 0.00 | 0.00 | 73 | 1005.9 |
| 20260902090846 | 55 | 223 | 3.0 | 5.0 | 0.00 | 0.00 | 0.00 | 73 | 1006.0 |
| 20260902090743 | 55 | 223 | 4.0 | 5.0 | 0.00 | 0.00 | 0.00 | 73 | 1006.0 |
| 20260902090655 | 55 | 223 | 4.0 | 6.0 | 0.00 | 0.00 | 0.00 | 73 | 1006.0 |
| 20260902090549 | 55 | 223 | 3.0 | 6.0 | 0.00 | 0.00 | 0.00 | 73 | 1006.0 |
| 20260902090446 | 55 | 223 | 2.0 | 6.0 | 0.00 | 0.00 | 0.00 | 73 | 1006.0 |
| 20260902090352 | 55 | 223 | 3.0 | 6.0 | 0.00 | 0.00 | 0.00 | 73 | 1006.0 |
| 20260902090300 | 55 | 223 | 3.0 | 6.0 | 0.00 | 0.00 | 0.00 | 73 | 1006.1 |
| 20260902090155 | 55 | 223 | 3.0 | 6.0 | 0.00 | 0.00 | 0.00 | 73 | 1006.1 |
| 20260902090050 | 55 | 223 | 3.0 | 6.0 | 0.00 | 0.00 | 0.00 | 73 | 1006.0 |
| 20260902090019 | 55 | 223 | 3.0 | 6.0 | 0.00 | 0.00 | 0.00 | 73 | 1006.1 |
| 20260902085925 | 55 | 223 | 3.0 | 6.0 | 0.00 | 0.00 | 0.00 | 73 | 1006.1 |
| 20260902085741 | 55 | 223 | 2.0 | 5.0 | 0.00 | 0.00 | 0.00 | 73 | 1006.1 |
| 20260902085640 | 55 | 223 | 3.0 | 5.0 | 0.00 | 0.00 | 0.00 | 73 | 1006.1 |
| 20260902085604 | 55 | 223 | 3.0 | 5.0 | 0.00 | 0.00 | 0.00 | 73 | 1006.1 |
| 20260902085441 | 55 | 246 | 2.0 | 4.0 | 0.00 | 0.00 | 0.00 | 73 | 1006.1 |
| 20260902085338 | 55 | 246 | 2.0 | 4.0 | 0.00 | 0.00 | 0.00 | 73 | 1006.0 |
| 20260902085247 | 55 | 246 | 3.0 | 4.0 | 0.00 | 0.00 | 0.00 | 73 | 1006.1 |
| 20260902085143 | 55 | 246 | 3.0 | 4.0 | 0.00 | 0.00 | 0.00 | 73 | 1006.1 |
| 20260902085048 | 55 | 246 | 3.0 | 4.0 | 0.00 | 0.00 | 0.00 | 73 | 1006.1 |
| 20260902085005 | 55 | 246 | 2.0 | 4.0 | 0.00 | 0.00 | 0.00 | 73 | 1006.1 |
| 20260902084849 | 55 | 247 | 2.0 | 4.0 | 0.00 | 0.00 | 0.00 | 73 | 1006.0 |
| 20260902084753 | 55 | 246 | 1.0 | 4.0 | 0.00 | 0.00 | 0.00 | 73 | 1006.0 |
| 20260902084713 | 55 | 247 | 2.0 | 7.0 | 0.00 | 0.00 | 0.00 | 73 | 1006.0 |
| 20260902084616 | 55 | 246 | 2.0 | 7.0 | 0.00 | 0.00 | 0.00 | 73 | 1006.0 |
| 20260902084505 | 55 | 246 | 2.0 | 7.0 | 0.00 | 0.00 | 0.00 | 73 | 1006.0 |
| 20260902084400 | 55 | 246 | 2.0 | 7.0 | 0.00 | 0.00 | 0.00 | 73 | 1006.0 |
| 20260902084306 | 55 | 246 | 3.0 | 7.0 | 0.00 | 0.00 | 0.00 | 72 | 1005.9 |
| 20260902084144 | 55 | 246 | 3.0 | 7.0 | 0.00 | 0.00 | 0.00 | 72 | 1005.9 |
| 20260902084048 | 55 | 247 | 3.0 | 7.0 | 0.00 | 0.00 | 0.00 | 72 | 1005.9 |
| 20260902083944 | 55 | 247 | 4.0 | 7.0 | 0.00 | 0.00 | 0.00 | 72 | 1006.0 |
| 20260902083850 | 55 | 247 | 4.0 | 9.0 | 0.00 | 0.00 | 0.00 | 72 | 1005.9 |
| 20260902083807 | 55 | 246 | 4.0 | 9.0 | 0.00 | 0.00 | 0.00 | 72 | 1006.0 |
| 20260902083658 | 55 | 246 | 4.0 | 9.0 | 0.00 | 0.00 | 0.00 | 72 | 1005.9 |
| 20260902083602 | 55 | 246 | 3.0 | 9.0 | 0.00 | 0.00 | 0.00 | 72 | 1005.9 |
| 20260902083458 | 55 | 246 | 3.0 | 9.0 | 0.00 | 0.00 | 0.00 | 72 | 1005.9 |
| 20260902083402 | 55 | 246 | 4.0 | 9.0 | 0.00 | 0.00 | 0.00 | 72 | 1005.9 |
| 20260902083259 | 55 | 246 | 4.0 | 9.0 | 0.00 | 0.00 | 0.00 | 72 | 1005.9 |
| 20260902083207 | 55 | 246 | 5.0 | 9.0 | 0.00 | 0.00 | 0.00 | 72 | 1005.9 |
| 20260902083041 | 55 | 246 | 5.0 | 9.0 | 0.00 | 0.00 | 0.00 | 72 | 1005.9 |
| 20260902082942 | 55 | 244 | 6.0 | 12.0 | 0.00 | 0.00 | 0.00 | 72 | 1005.9 |
| 20260902082906 | 55 | 246 | 5.0 | 12.0 | 0.00 | 0.00 | 0.00 | 72 | 1005.9 |
| 20260902082752 | 56 | 246 | 4.0 | 12.0 | 0.00 | 0.00 | 0.00 | 72 | 1005.8 |
| 20260902082651 | 56 | 240 | 4.0 | 12.0 | 0.00 | 0.00 | 0.00 | 72 | 1005.8 |
| 20260902082546 | 56 | 240 | 5.0 | 12.0 | 0.00 | 0.00 | 0.00 | 72 | 1005.9 |
| 20260902082512 | 56 | 240 | 5.0 | 12.0 | 0.00 | 0.00 | 0.00 | 72 | 1005.8 |
| 20260902082357 | 56 | 275 | 6.0 | 12.0 | 0.00 | 0.00 | 0.00 | 72 | 1005.8 |
| 20260902082313 | 55 | 267 | 7.0 | 12.0 | 0.00 | 0.00 | 0.00 | 72 | 1005.8 |
| 20260902082204 | 55 | 264 | 7.0 | 12.0 | 0.00 | 0.00 | 0.00 | 72 | 1005.8 |
| 20260902082039 | 55 | 271 | 8.0 | 12.0 | 0.00 | 0.00 | 0.00 | 72 | 1005.8 |
| 20260902081936 | 55 | 269 | 7.0 | 12.0 | 0.00 | 0.00 | 0.00 | 72 | 1005.8 |
| 20260902081842 | 55 | 283 | 5.0 | 10.0 | 0.00 | 0.00 | 0.00 | 72 | 1005.8 |
| 20260902081739 | 55 | 231 | 5.0 | 10.0 | 0.00 | 0.00 | 0.00 | 72 | 1005.8 |
| 20260902081645 | 55 | 279 | 6.0 | 10.0 | 0.00 | 0.00 | 0.00 | 72 | 1005.7 |
| 20260902081539 | 55 | 264 | 6.0 | 10.0 | 0.00 | 0.00 | 0.00 | 72 | 1005.8 |
| 20260902081447 | 55 | 266 | 6.0 | 9.0 | 0.00 | 0.00 | 0.00 | 72 | 1005.8 |
| 20260902081353 | 55 | 251 | 5.0 | 9.0 | 0.00 | 0.00 | 0.00 | 72 | 1005.8 |
| 20260902081249 | 56 | 257 | 4.0 | 8.0 | 0.00 | 0.00 | 0.00 | 72 | 1005.8 |
| 20260902081148 | 56 | 271 | 4.0 | 9.0 | 0.00 | 0.00 | 0.00 | 72 | 1005.8 |
| 20260902081053 | 56 | 271 | 5.0 | 11.0 | 0.00 | 0.00 | 0.00 | 72 | 1005.8 |
| 20260902080949 | 56 | 273 | 4.0 | 11.0 | 0.00 | 0.00 | 0.00 | 72 | 1005.8 |
| 20260902080916 | 56 | 285 | 3.0 | 11.0 | 0.00 | 0.00 | 0.00 | 71 | 1005.8 |
| 20260902080755 | 56 | 245 | 3.0 | 11.0 | 0.00 | 0.00 | 0.00 | 71 | 1005.8 |
| 20260902080701 | 56 | 246 | 4.0 | 11.0 | 0.00 | 0.00 | 0.00 | 71 | 1005.8 |
| 20260902080536 | 56 | 291 | 6.0 | 11.0 | 0.00 | 0.00 | 0.00 | 71 | 1005.7 |
| 20260902080503 | 56 | 291 | 6.0 | 11.0 | 0.00 | 0.00 | 0.00 | 71 | 1005.7 |
| 20260902080340 | 56 | 264 | 5.0 | 11.0 | 0.00 | 0.00 | 0.00 | 71 | 1005.8 |
| 20260902080317 | 56 | 264 | 5.0 | 11.0 | 0.00 | 0.00 | 0.00 | 71 | 1005.8 |
| 20260902080203 | 56 | 268 | 2.0 | 9.0 | 0.00 | 0.00 | 0.00 | 71 | 1005.8 |
| 20260902080040 | 56 | 268 | 3.0 | 9.0 | 0.00 | 0.00 | 0.00 | 71 | 1005.8 |
| 20260902075947 | 56 | 268 | 3.0 | 9.0 | 0.00 | 0.00 | 0.00 | 71 | 1005.8 |